Time,TemperatureF,DewpointF,PressureIn,WindDirection,WindDirectionDegrees,WindSpeedMPH,WindSpeedGustMPH,Humidity,HourlyPrecipIn,Conditions,Clouds,dailyrainin,SoftwareType,DateUTC
2013-06-24 00:01:00,75.1,69.9,30.08,SSE,153,0.0,1.0,84,0.00,,,0.52,Wunderground v.1.15,2013-06-24 04:01:00,
2013-06-24 00:02:00,75.1,69.9,30.08,SSE,153,0.0,1.0,84,0.00,,,0.52,Wunderground v.1.15,2013-06-24 04:02:00,
2013-06-24 00:07:00,74.9,69.4,30.08,SSE,153,1.0,1.0,83,0.00,,,0.00,Wunderground v.1.15,2013-06-24 04:07:00,
2013-06-24 00:08:00,74.8,69.3,30.08,SSE,153,2.0,2.0,83,0.00,,,0.00,Wunderground v.1.15,2013-06-24 04:08:00,
2013-06-24 00:10:00,74.6,69.1,30.08,SSE,153,0.0,1.0,83,0.00,,,0.00,Wunderground v.1.15,2013-06-24 04:10:00,
2013-06-24 00:12:00,74.4,68.9,30.08,SSE,152,0.0,1.0,83,0.00,,,0.00,Wunderground v.1.15,2013-06-24 04:12:00,
2013-06-24 00:13:00,74.3,68.8,30.08,SSE,153,0.0,1.0,83,0.00,,,0.00,Wunderground v.1.15,2013-06-24 04:13:00,
2013-06-24 00:16:00,74.2,68.7,30.08,SSE,153,2.0,2.0,83,0.00,,,0.00,Wunderground v.1.15,2013-06-24 04:16:00,
2013-06-24 00:18:00,74.0,68.9,30.08,SSE,152,0.0,2.0,84,0.00,,,0.00,Wunderground v.1.15,2013-06-24 04:18:00,
2013-06-24 00:20:00,73.7,68.9,30.08,SSE,153,0.0,2.0,85,0.00,,,0.00,Wunderground v.1.15,2013-06-24 04:20:00,
2013-06-24 00:21:00,73.6,68.8,30.08,SSE,153,0.0,2.0,85,0.00,,,0.00,Wunderground v.1.15,2013-06-24 04:21:00,
2013-06-24 00:23:00,73.5,68.7,30.08,SSE,152,0.0,2.0,85,0.00,,,0.00,Wunderground v.1.15,2013-06-24 04:23:00,
2013-06-24 00:26:00,73.2,68.8,30.08,SSE,152,0.0,2.0,86,0.00,,,0.00,Wunderground v.1.15,2013-06-24 04:26:00,
2013-06-24 00:29:00,73.0,68.6,30.08,SSE,152,0.0,2.0,86,0.00,,,0.00,Wunderground v.1.15,2013-06-24 04:29:00,
2013-06-24 00:30:00,72.9,68.5,30.08,SSE,152,2.0,2.0,86,0.00,,,0.00,Wunderground v.1.15,2013-06-24 04:30:00,
2013-06-24 00:34:00,72.5,68.4,30.08,SSE,152,1.0,2.0,87,0.00,,,0.00,Wunderground v.1.15,2013-06-24 04:34:00,
2013-06-24 00:36:00,72.5,68.7,30.08,SSE,152,0.0,2.0,88,0.00,,,0.00,Wunderground v.1.15,2013-06-24 04:36:00,
2013-06-24 00:37:00,72.4,68.6,30.08,SSE,153,0.0,2.0,88,0.00,,,0.00,Wunderground v.1.15,2013-06-24 04:37:00,
2013-06-24 00:38:00,72.3,68.5,30.08,SSE,153,1.0,2.0,88,0.00,,,0.00,Wunderground v.1.15,2013-06-24 04:38:00,
2013-06-24 00:42:00,72.0,68.6,30.08,SSE,153,1.0,2.0,89,0.00,,,0.00,Wunderground v.1.15,2013-06-24 04:42:00,
2013-06-24 00:45:00,71.7,68.3,30.08,SSE,153,0.0,2.0,89,0.00,,,0.00,Wunderground v.1.15,2013-06-24 04:45:00,
2013-06-24 00:50:00,71.3,68.2,30.09,SSE,153,0.0,1.0,90,0.00,,,0.00,Wunderground v.1.15,2013-06-24 04:50:00,
2013-06-24 00:51:00,71.3,68.2,30.08,SSE,152,0.0,1.0,90,0.00,,,0.00,Wunderground v.1.15,2013-06-24 04:51:00,
2013-06-24 00:56:00,71.2,68.4,30.08,SSE,153,0.0,1.0,91,0.00,,,0.00,Wunderground v.1.15,2013-06-24 04:56:00,
2013-06-24 00:57:00,71.2,68.4,30.08,SSE,152,1.0,1.0,91,0.00,,,0.00,Wunderground v.1.15,2013-06-24 04:57:00,
2013-06-24 00:58:00,71.3,68.2,30.08,SSE,153,1.0,1.0,90,0.00,,,0.00,Wunderground v.1.15,2013-06-24 04:58:00,
2013-06-24 01:03:00,71.7,68.6,30.08,SSE,153,1.0,1.0,90,0.00,,,0.00,Wunderground v.1.15,2013-06-24 05:03:00,
2013-06-24 01:04:00,71.8,68.7,30.08,SSE,153,1.0,1.0,90,0.00,,,0.00,Wunderground v.1.15,2013-06-24 05:04:00,
2013-06-24 01:06:00,71.8,68.7,30.08,SSE,153,2.0,2.0,90,0.00,,,0.00,Wunderground v.1.15,2013-06-24 05:06:00,
2013-06-24 01:07:00,71.8,68.7,30.08,SSE,153,1.0,2.0,90,0.00,,,0.00,Wunderground v.1.15,2013-06-24 05:07:00,
2013-06-24 01:13:00,71.6,68.5,30.08,SSE,153,0.0,1.0,90,0.00,,,0.00,Wunderground v.1.15,2013-06-24 05:13:00,
2013-06-24 01:14:00,71.6,68.5,30.08,SSE,153,2.0,2.0,90,0.00,,,0.00,Wunderground v.1.15,2013-06-24 05:14:00,
2013-06-24 01:15:00,71.6,68.5,30.08,SSE,153,0.0,2.0,90,0.00,,,0.00,Wunderground v.1.15,2013-06-24 05:15:00,
2013-06-24 01:19:00,71.7,68.6,30.08,SSE,153,1.0,2.0,90,0.00,,,0.00,Wunderground v.1.15,2013-06-24 05:19:00,
2013-06-24 01:20:00,71.8,68.4,30.08,SSE,153,2.0,2.0,89,0.00,,,0.00,Wunderground v.1.15,2013-06-24 05:20:00,
2013-06-24 01:21:00,71.8,68.4,30.08,SSE,153,0.0,2.0,89,0.00,,,0.00,Wunderground v.1.15,2013-06-24 05:21:00,
2013-06-24 01:27:00,72.1,68.7,30.08,SSE,153,0.0,2.0,89,0.00,,,0.00,Wunderground v.1.15,2013-06-24 05:27:00,
2013-06-24 01:28:00,72.2,68.4,30.08,SSE,153,0.0,2.0,88,0.00,,,0.00,Wunderground v.1.15,2013-06-24 05:28:00,
2013-06-24 01:32:00,72.4,68.6,30.08,SSE,153,2.0,2.0,88,0.00,,,0.00,Wunderground v.1.15,2013-06-24 05:32:00,
2013-06-24 01:33:00,72.5,68.7,30.08,SSE,153,1.0,2.0,88,0.00,,,0.00,Wunderground v.1.15,2013-06-24 05:33:00,
2013-06-24 01:34:00,72.5,68.7,30.08,SSE,153,0.0,2.0,88,0.00,,,0.00,Wunderground v.1.15,2013-06-24 05:34:00,
2013-06-24 01:35:00,72.5,68.7,30.08,SSE,153,0.0,2.0,88,0.00,,,0.00,Wunderground v.1.15,2013-06-24 05:35:00,
2013-06-24 01:40:00,72.6,68.8,30.08,SSE,153,0.0,0.0,88,0.00,,,0.00,Wunderground v.1.15,2013-06-24 05:40:00,
2013-06-24 01:41:00,72.6,68.8,30.08,SSE,153,0.0,0.0,88,0.00,,,0.00,Wunderground v.1.15,2013-06-24 05:41:00,
2013-06-24 01:44:00,72.6,68.8,30.08,SSE,153,0.0,0.0,88,0.00,,,0.00,Wunderground v.1.15,2013-06-24 05:44:00,
2013-06-24 01:46:00,72.6,68.8,30.08,SSE,153,0.0,0.0,88,0.00,,,0.00,Wunderground v.1.15,2013-06-24 05:46:00,
2013-06-24 01:52:00,72.6,68.8,30.08,SSE,153,0.0,3.0,88,0.00,,,0.00,Wunderground v.1.15,2013-06-24 05:52:00,
2013-06-24 01:53:00,72.5,69.1,30.08,SSE,153,0.0,3.0,89,0.00,,,0.00,Wunderground v.1.15,2013-06-24 05:53:00,
2013-06-24 01:56:00,72.5,69.1,30.08,SSE,153,0.0,3.0,89,0.00,,,0.00,Wunderground v.1.15,2013-06-24 05:56:00,
2013-06-24 01:59:00,72.4,69.0,30.08,SSE,153,1.0,1.0,89,0.00,,,0.00,Wunderground v.1.15,2013-06-24 05:59:00,
2013-06-24 02:01:00,72.4,69.0,30.08,SSE,153,1.0,2.0,89,0.00,,,0.00,Wunderground v.1.15,2013-06-24 06:01:00,
2013-06-24 02:03:00,72.3,68.9,30.08,SSE,153,1.0,2.0,89,0.00,,,0.00,Wunderground v.1.15,2013-06-24 06:03:00,
2013-06-24 02:04:00,72.2,68.8,30.08,SSE,153,0.0,2.0,89,0.00,,,0.00,Wunderground v.1.15,2013-06-24 06:04:00,
2013-06-24 02:06:00,72.1,69.0,30.08,SSE,153,0.0,2.0,90,0.00,,,0.00,Wunderground v.1.15,2013-06-24 06:06:00,
2013-06-24 02:08:00,72.0,68.9,30.08,SSE,153,0.0,2.0,90,0.00,,,0.00,Wunderground v.1.15,2013-06-24 06:08:00,
2013-06-24 02:09:00,72.0,68.9,30.08,SSE,153,0.0,2.0,90,0.00,,,0.00,Wunderground v.1.15,2013-06-24 06:09:00,
2013-06-24 02:11:00,71.9,68.8,30.08,SSE,153,0.0,0.0,90,0.00,,,0.00,Wunderground v.1.15,2013-06-24 06:11:00,
2013-06-24 02:12:00,71.8,68.7,30.08,SSE,153,0.0,0.0,90,0.00,,,0.00,Wunderground v.1.15,2013-06-24 06:12:00,
2013-06-24 02:13:00,71.8,68.7,30.08,SSE,153,0.0,1.0,90,0.00,,,0.00,Wunderground v.1.15,2013-06-24 06:13:00,
2013-06-24 02:15:00,71.7,68.6,30.08,SSE,153,1.0,1.0,90,0.00,,,0.00,Wunderground v.1.15,2013-06-24 06:15:00,
2013-06-24 02:17:00,71.7,68.6,30.07,SSE,153,1.0,2.0,90,0.00,,,0.00,Wunderground v.1.15,2013-06-24 06:17:00,
2013-06-24 02:18:00,71.6,68.5,30.07,SSE,153,0.0,2.0,90,0.00,,,0.00,Wunderground v.1.15,2013-06-24 06:18:00,
2013-06-24 02:19:00,71.6,68.5,30.07,SSE,153,0.0,2.0,90,0.00,,,0.00,Wunderground v.1.15,2013-06-24 06:19:00,
2013-06-24 02:20:00,71.6,68.5,30.07,SSE,153,0.0,0.0,90,0.00,,,0.00,Wunderground v.1.15,2013-06-24 06:20:00,
2013-06-24 02:23:00,71.6,68.5,30.07,SSE,153,0.0,0.0,90,0.00,,,0.00,Wunderground v.1.15,2013-06-24 06:23:00,
2013-06-24 02:24:00,71.6,68.5,30.07,SSE,153,0.0,1.0,90,0.00,,,0.00,Wunderground v.1.15,2013-06-24 06:24:00,
2013-06-24 02:26:00,71.6,68.5,30.07,SSE,153,0.0,1.0,90,0.00,,,0.00,Wunderground v.1.15,2013-06-24 06:26:00,
2013-06-24 02:29:00,71.7,68.6,30.07,SSE,153,0.0,1.0,90,0.00,,,0.00,Wunderground v.1.15,2013-06-24 06:29:00,
2013-06-24 02:31:00,71.7,68.6,30.07,SSE,153,0.0,0.0,90,0.00,,,0.00,Wunderground v.1.15,2013-06-24 06:31:00,
2013-06-24 02:34:00,71.8,68.7,30.07,SSE,153,0.0,1.0,90,0.00,,,0.00,Wunderground v.1.15,2013-06-24 06:34:00,
2013-06-24 02:36:00,71.9,68.8,30.07,SSE,153,0.0,1.0,90,0.00,,,0.00,Wunderground v.1.15,2013-06-24 06:36:00,
2013-06-24 02:37:00,71.9,68.8,30.07,SSE,153,0.0,1.0,90,0.00,,,0.00,Wunderground v.1.15,2013-06-24 06:37:00,
2013-06-24 02:40:00,71.9,68.8,30.07,SSE,153,0.0,0.0,90,0.00,,,0.00,Wunderground v.1.15,2013-06-24 06:40:00,
2013-06-24 02:41:00,71.9,68.8,30.07,SSE,153,0.0,1.0,90,0.00,,,0.00,Wunderground v.1.15,2013-06-24 06:41:00,
2013-06-24 02:43:00,72.0,68.9,30.07,SSE,153,0.0,1.0,90,0.00,,,0.00,Wunderground v.1.15,2013-06-24 06:43:00,
2013-06-24 02:45:00,72.0,68.6,30.07,SSE,153,0.0,1.0,89,0.00,,,0.00,Wunderground v.1.15,2013-06-24 06:45:00,
2013-06-24 02:46:00,72.0,68.6,30.07,SSE,153,0.0,1.0,89,0.00,,,0.00,Wunderground v.1.15,2013-06-24 06:46:00,
2013-06-24 02:49:00,72.0,68.6,30.07,SSE,153,0.0,1.0,89,0.00,,,0.00,Wunderground v.1.15,2013-06-24 06:49:00,
2013-06-24 02:50:00,72.1,69.0,30.07,SSE,153,2.0,2.0,90,0.00,,,0.00,Wunderground v.1.15,2013-06-24 06:50:00,
2013-06-24 02:52:00,72.1,68.7,30.07,SSE,153,0.0,4.0,89,0.00,,,0.00,Wunderground v.1.15,2013-06-24 06:52:00,
2013-06-24 02:55:00,72.2,68.4,30.07,SSE,153,0.0,4.0,88,0.00,,,0.00,Wunderground v.1.15,2013-06-24 06:55:00,
2013-06-24 02:56:00,72.3,68.9,30.07,SSE,153,0.0,4.0,89,0.00,,,0.00,Wunderground v.1.15,2013-06-24 06:56:00,
2013-06-24 02:57:00,72.4,68.6,30.07,SSE,153,0.0,4.0,88,0.00,,,0.00,Wunderground v.1.15,2013-06-24 06:57:00,
2013-06-24 02:58:00,72.4,69.0,30.07,SSE,153,0.0,4.0,89,0.00,,,0.00,Wunderground v.1.15,2013-06-24 06:58:00,
2013-06-24 03:01:00,72.5,69.1,30.07,SSE,152,1.0,2.0,89,0.00,,,0.00,Wunderground v.1.15,2013-06-24 07:01:00,
2013-06-24 03:02:00,72.5,68.7,30.07,SSE,153,1.0,2.0,88,0.00,,,0.00,Wunderground v.1.15,2013-06-24 07:02:00,
2013-06-24 03:04:00,72.5,68.7,30.07,SSE,153,0.0,2.0,88,0.00,,,0.00,Wunderground v.1.15,2013-06-24 07:04:00,
2013-06-24 03:06:00,72.5,68.7,30.07,SSE,153,0.0,2.0,88,0.00,,,0.00,Wunderground v.1.15,2013-06-24 07:06:00,
2013-06-24 03:09:00,72.5,68.7,30.06,SSE,153,1.0,2.0,88,0.00,,,0.00,Wunderground v.1.15,2013-06-24 07:09:00,
2013-06-24 03:12:00,72.5,68.7,30.06,SSE,152,0.0,2.0,88,0.00,,,0.00,Wunderground v.1.15,2013-06-24 07:12:00,
2013-06-24 03:14:00,72.6,68.5,30.06,SSE,152,0.0,3.0,87,0.00,,,0.00,Wunderground v.1.15,2013-06-24 07:14:00,
2013-06-24 03:15:00,72.6,68.5,30.06,SSE,153,0.0,3.0,87,0.00,,,0.00,Wunderground v.1.15,2013-06-24 07:15:00,
2013-06-24 03:17:00,72.8,68.7,30.06,SSE,153,0.0,3.0,87,0.00,,,0.00,Wunderground v.1.15,2013-06-24 07:17:00,
2013-06-24 03:19:00,72.9,68.8,30.06,SSE,153,2.0,3.0,87,0.00,,,0.00,Wunderground v.1.15,2013-06-24 07:19:00,
2013-06-24 03:20:00,72.9,69.1,30.06,SSE,153,2.0,3.0,88,0.00,,,0.00,Wunderground v.1.15,2013-06-24 07:20:00,
2013-06-24 03:24:00,72.8,68.7,30.06,SSE,153,1.0,3.0,87,0.00,,,0.00,Wunderground v.1.15,2013-06-24 07:24:00,
2013-06-24 03:25:00,72.9,68.8,30.06,SSE,153,0.0,3.0,87,0.00,,,0.00,Wunderground v.1.15,2013-06-24 07:25:00,
2013-06-24 03:30:00,73.1,69.0,30.06,SSE,153,0.0,1.0,87,0.00,,,0.00,Wunderground v.1.15,2013-06-24 07:30:00,
2013-06-24 03:31:00,73.1,69.0,30.06,SSE,153,0.0,1.0,87,0.00,,,0.00,Wunderground v.1.15,2013-06-24 07:31:00,
2013-06-24 03:32:00,73.1,69.0,30.06,SSE,153,0.0,1.0,87,0.00,,,0.00,Wunderground v.1.15,2013-06-24 07:32:00,
2013-06-24 03:36:00,73.2,69.1,30.07,SSE,153,0.0,2.0,87,0.00,,,0.00,Wunderground v.1.15,2013-06-24 07:36:00,
2013-06-24 03:37:00,73.2,69.1,30.07,SSE,153,0.0,2.0,87,0.00,,,0.00,Wunderground v.1.15,2013-06-24 07:37:00,
2013-06-24 03:42:00,73.3,68.9,30.06,SSE,154,3.0,3.0,86,0.00,,,0.00,Wunderground v.1.15,2013-06-24 07:42:00,
2013-06-24 03:43:00,73.3,68.9,30.06,SSE,153,0.0,3.0,86,0.00,,,0.00,Wunderground v.1.15,2013-06-24 07:43:00,
2013-06-24 03:47:00,73.4,69.0,30.07,SSE,153,0.0,3.0,86,0.00,,,0.00,Wunderground v.1.15,2013-06-24 07:47:00,
2013-06-24 03:48:00,73.4,69.0,30.07,SSE,154,0.0,3.0,86,0.00,,,0.00,Wunderground v.1.15,2013-06-24 07:48:00,
2013-06-24 03:53:00,73.4,69.0,30.07,SSE,153,1.0,3.0,86,0.00,,,0.00,Wunderground v.1.15,2013-06-24 07:53:00,
2013-06-24 03:54:00,73.4,69.0,30.07,SSE,154,1.0,3.0,86,0.00,,,0.00,Wunderground v.1.15,2013-06-24 07:54:00,
2013-06-24 03:55:00,73.5,69.1,30.07,SSE,154,1.0,3.0,86,0.00,,,0.00,Wunderground v.1.15,2013-06-24 07:55:00,
2013-06-24 03:58:00,73.5,69.1,30.07,SSE,153,0.0,3.0,86,0.00,,,0.00,Wunderground v.1.15,2013-06-24 07:58:00,
2013-06-24 04:00:00,73.5,69.1,30.07,SSE,155,2.0,2.0,86,0.00,,,0.00,Wunderground v.1.15,2013-06-24 08:00:00,
2013-06-24 04:02:00,73.5,69.1,30.07,SSE,155,0.0,3.0,86,0.00,,,0.00,Wunderground v.1.15,2013-06-24 08:02:00,
2013-06-24 04:03:00,73.7,69.2,30.07,SSE,155,0.0,3.0,86,0.00,,,0.00,Wunderground v.1.15,2013-06-24 08:03:00,
2013-06-24 04:05:00,73.7,69.2,30.07,SSE,155,2.0,3.0,86,0.00,,,0.00,Wunderground v.1.15,2013-06-24 08:05:00,
2013-06-24 04:06:00,73.7,68.9,30.07,SSE,155,0.0,3.0,85,0.00,,,0.00,Wunderground v.1.15,2013-06-24 08:06:00,
2013-06-24 04:07:00,73.8,69.3,30.07,SSE,155,2.0,3.0,86,0.00,,,0.00,Wunderground v.1.15,2013-06-24 08:07:00,
2013-06-24 04:09:00,73.7,69.6,30.07,SSE,155,0.0,3.0,87,0.00,,,0.00,Wunderground v.1.15,2013-06-24 08:09:00,
2013-06-24 04:10:00,73.7,69.6,30.07,SSE,155,0.0,1.0,87,0.00,,,0.00,Wunderground v.1.15,2013-06-24 08:10:00,
2013-06-24 04:12:00,73.6,69.2,30.07,SSE,155,0.0,2.0,86,0.00,,,0.00,Wunderground v.1.15,2013-06-24 08:12:00,
2013-06-24 04:13:00,73.6,69.5,30.07,SSE,155,0.0,2.0,87,0.00,,,0.00,Wunderground v.1.15,2013-06-24 08:13:00,
2013-06-24 04:16:00,73.5,69.4,30.07,SSE,155,3.0,3.0,87,0.00,,,0.00,Wunderground v.1.15,2013-06-24 08:16:00,
2013-06-24 04:18:00,73.5,69.1,30.08,SSE,165,2.0,5.0,86,0.00,,,0.00,Wunderground v.1.15,2013-06-24 08:18:00,
2013-06-24 04:19:00,73.6,69.2,30.08,SSE,165,1.0,5.0,86,0.00,,,0.00,Wunderground v.1.15,2013-06-24 08:19:00,
2013-06-24 04:21:00,73.7,69.2,30.08,SSE,165,1.0,2.0,86,0.00,,,0.00,Wunderground v.1.15,2013-06-24 08:21:00,
2013-06-24 04:24:00,73.7,68.9,30.08,SSE,165,0.0,2.0,85,0.00,,,0.00,Wunderground v.1.15,2013-06-24 08:24:00,
2013-06-24 04:25:00,73.8,69.3,30.08,SSE,165,0.0,2.0,86,0.00,,,0.00,Wunderground v.1.15,2013-06-24 08:25:00,
2013-06-24 04:26:00,73.8,69.0,30.08,SSE,165,1.0,2.0,85,0.00,,,0.00,Wunderground v.1.15,2013-06-24 08:26:00,
2013-06-24 04:27:00,73.7,68.9,30.08,SSE,165,2.0,2.0,85,0.00,,,0.00,Wunderground v.1.15,2013-06-24 08:27:00,
2013-06-24 04:32:00,73.7,69.2,30.07,SSE,165,0.0,1.0,86,0.00,,,0.00,Wunderground v.1.15,2013-06-24 08:32:00,
2013-06-24 04:33:00,73.7,69.2,30.08,SSE,165,0.0,1.0,86,0.00,,,0.00,Wunderground v.1.15,2013-06-24 08:33:00,
2013-06-24 04:37:00,73.6,69.2,30.08,SSE,165,0.0,1.0,86,0.00,,,0.00,Wunderground v.1.15,2013-06-24 08:37:00,
2013-06-24 04:38:00,73.5,69.1,30.08,SSE,165,0.0,1.0,86,0.00,,,0.00,Wunderground v.1.15,2013-06-24 08:38:00,
2013-06-24 04:39:00,73.5,69.1,30.08,SSE,165,0.0,1.0,86,0.00,,,0.00,Wunderground v.1.15,2013-06-24 08:39:00,
2013-06-24 04:43:00,73.5,69.1,30.08,SSE,165,0.0,2.0,86,0.00,,,0.00,Wunderground v.1.15,2013-06-24 08:43:00,
2013-06-24 04:44:00,73.5,69.1,30.08,SSE,165,0.0,2.0,86,0.00,,,0.00,Wunderground v.1.15,2013-06-24 08:44:00,
2013-06-24 04:49:00,73.4,69.3,30.08,SSE,165,2.0,2.0,87,0.00,,,0.00,Wunderground v.1.15,2013-06-24 08:49:00,
2013-06-24 04:50:00,73.3,69.2,30.08,SSE,165,0.0,1.0,87,0.00,,,0.00,Wunderground v.1.15,2013-06-24 08:50:00,
2013-06-24 04:51:00,73.3,69.2,30.08,SSE,165,0.0,1.0,87,0.00,,,0.00,Wunderground v.1.15,2013-06-24 08:51:00,
2013-06-24 04:52:00,73.3,69.2,30.08,SSE,165,0.0,1.0,87,0.00,,,0.00,Wunderground v.1.15,2013-06-24 08:52:00,
2013-06-24 04:54:00,73.2,69.1,30.08,SSE,165,2.0,2.0,87,0.00,,,0.00,Wunderground v.1.15,2013-06-24 08:54:00,
2013-06-24 04:56:00,73.1,69.0,30.08,SSE,165,0.0,2.0,87,0.00,,,0.00,Wunderground v.1.15,2013-06-24 08:56:00,
2013-06-24 04:57:00,73.1,69.0,30.08,SSE,165,0.0,2.0,87,0.00,,,0.00,Wunderground v.1.15,2013-06-24 08:57:00,
2013-06-24 05:01:00,73.0,68.9,30.08,SSE,165,0.0,0.0,87,0.00,,,0.00,Wunderground v.1.15,2013-06-24 09:01:00,
2013-06-24 05:02:00,73.0,68.9,30.08,SSE,165,0.0,1.0,87,0.00,,,0.00,Wunderground v.1.15,2013-06-24 09:02:00,
2013-06-24 05:03:00,72.9,68.8,30.08,SSE,165,0.0,1.0,87,0.00,,,0.00,Wunderground v.1.15,2013-06-24 09:03:00,
2013-06-24 05:04:00,72.9,68.8,30.08,SSE,165,0.0,1.0,87,0.00,,,0.00,Wunderground v.1.15,2013-06-24 09:04:00,
2013-06-24 05:06:00,72.9,68.8,30.08,SSE,165,0.0,1.0,87,0.00,,,0.00,Wunderground v.1.15,2013-06-24 09:06:00,
2013-06-24 05:07:00,72.9,68.8,30.08,SSE,165,1.0,1.0,87,0.00,,,0.00,Wunderground v.1.15,2013-06-24 09:07:00,
2013-06-24 05:08:00,72.8,68.7,30.08,SSE,165,1.0,1.0,87,0.00,,,0.00,Wunderground v.1.15,2013-06-24 09:08:00,
2013-06-24 05:09:00,72.8,68.7,30.08,SSE,165,0.0,1.0,87,0.00,,,0.00,Wunderground v.1.15,2013-06-24 09:09:00,
2013-06-24 05:11:00,72.7,68.9,30.08,SSE,165,2.0,2.0,88,0.00,,,0.00,Wunderground v.1.15,2013-06-24 09:11:00,
2013-06-24 05:12:00,72.7,68.9,30.08,SSE,165,1.0,2.0,88,0.00,,,0.00,Wunderground v.1.15,2013-06-24 09:12:00,
2013-06-24 05:13:00,72.6,68.8,30.08,SSE,165,0.0,2.0,88,0.00,,,0.00,Wunderground v.1.15,2013-06-24 09:13:00,
2013-06-24 05:14:00,72.6,68.8,30.08,SSE,165,0.0,2.0,88,0.00,,,0.00,Wunderground v.1.15,2013-06-24 09:14:00,
2013-06-24 05:17:00,72.5,68.7,30.08,SSE,165,0.0,2.0,88,0.00,,,0.00,Wunderground v.1.15,2013-06-24 09:17:00,
2013-06-24 05:18:00,72.5,68.7,30.08,SSE,165,0.0,2.0,88,0.00,,,0.00,Wunderground v.1.15,2013-06-24 09:18:00,
2013-06-24 05:19:00,72.5,68.7,30.08,SSE,165,0.0,0.0,88,0.00,,,0.00,Wunderground v.1.15,2013-06-24 09:19:00,
2013-06-24 05:24:00,72.4,68.6,30.08,SSE,165,0.0,1.0,88,0.00,,,0.00,Wunderground v.1.15,2013-06-24 09:24:00,
2013-06-24 05:25:00,72.4,68.6,30.08,SSE,165,0.0,1.0,88,0.00,,,0.00,Wunderground v.1.15,2013-06-24 09:25:00,
2013-06-24 05:29:00,72.4,68.6,30.08,SSE,165,0.0,1.0,88,0.00,,,0.00,Wunderground v.1.15,2013-06-24 09:29:00,
2013-06-24 05:30:00,72.4,68.6,30.08,SSE,165,0.0,0.0,88,0.00,,,0.00,Wunderground v.1.15,2013-06-24 09:30:00,
2013-06-24 05:33:00,72.4,68.6,30.08,SSE,165,0.0,0.0,88,0.00,,,0.00,Wunderground v.1.15,2013-06-24 09:33:00,
2013-06-24 05:35:00,72.4,68.6,30.08,SSE,165,0.0,0.0,88,0.00,,,0.00,Wunderground v.1.15,2013-06-24 09:35:00,
2013-06-24 05:36:00,72.3,68.5,30.08,SSE,165,0.0,0.0,88,0.00,,,0.00,Wunderground v.1.15,2013-06-24 09:36:00,
2013-06-24 05:39:00,72.3,68.9,30.08,SSE,165,0.0,0.0,89,0.00,,,0.00,Wunderground v.1.15,2013-06-24 09:39:00,
2013-06-24 05:40:00,72.2,68.8,30.08,SSE,165,0.0,1.0,89,0.00,,,0.00,Wunderground v.1.15,2013-06-24 09:40:00,
2013-06-24 05:41:00,72.2,68.8,30.08,SSE,165,3.0,3.0,89,0.00,,,0.00,Wunderground v.1.15,2013-06-24 09:41:00,
2013-06-24 05:44:00,72.0,68.6,30.08,SSE,165,1.0,3.0,89,0.00,,,0.00,Wunderground v.1.15,2013-06-24 09:44:00,
2013-06-24 05:46:00,71.9,68.5,30.08,SSE,165,1.0,3.0,89,0.00,,,0.00,Wunderground v.1.15,2013-06-24 09:46:00,
2013-06-24 05:47:00,71.8,68.4,30.08,SSE,165,1.0,3.0,89,0.00,,,0.00,Wunderground v.1.15,2013-06-24 09:47:00,
2013-06-24 05:50:00,71.6,68.5,30.08,SSE,165,0.0,1.0,90,0.00,,,0.00,Wunderground v.1.15,2013-06-24 09:50:00,
2013-06-24 05:51:00,71.5,68.4,30.08,SSE,165,0.0,1.0,90,0.00,,,0.00,Wunderground v.1.15,2013-06-24 09:51:00,
2013-06-24 05:54:00,71.5,68.4,30.08,SSE,165,0.0,1.0,90,0.00,,,0.00,Wunderground v.1.15,2013-06-24 09:54:00,
2013-06-24 05:55:00,71.4,68.3,30.09,SSE,165,0.0,1.0,90,0.00,,,0.00,Wunderground v.1.15,2013-06-24 09:55:00,
2013-06-24 05:57:00,71.3,68.5,30.09,SSE,165,0.0,1.0,91,0.00,,,0.00,Wunderground v.1.15,2013-06-24 09:57:00,
2013-06-24 05:59:00,71.3,68.5,30.09,SSE,165,0.0,1.0,91,0.00,,,0.00,Wunderground v.1.15,2013-06-24 09:59:00,
2013-06-24 06:00:00,71.3,68.5,30.09,SSE,165,0.0,0.0,91,0.00,,,0.00,Wunderground v.1.15,2013-06-24 10:00:00,
2013-06-24 06:03:00,71.3,68.5,30.09,SSE,165,0.0,0.0,91,0.00,,,0.00,Wunderground v.1.15,2013-06-24 10:03:00,
2013-06-24 06:04:00,71.3,68.5,30.09,SSE,165,0.0,0.0,91,0.00,,,0.00,Wunderground v.1.15,2013-06-24 10:04:00,
2013-06-24 06:07:00,71.3,68.5,30.09,SSE,165,0.0,0.0,91,0.00,,,0.00,Wunderground v.1.15,2013-06-24 10:07:00,
2013-06-24 06:08:00,71.3,68.5,30.09,SSE,165,0.0,0.0,91,0.00,,,0.00,Wunderground v.1.15,2013-06-24 10:08:00,
2013-06-24 06:10:00,71.3,68.5,30.09,SSE,165,0.0,0.0,91,0.00,,,0.00,Wunderground v.1.15,2013-06-24 10:10:00,
2013-06-24 06:12:00,71.3,68.5,30.09,SSE,165,0.0,1.0,91,0.00,,,0.00,Wunderground v.1.15,2013-06-24 10:12:00,
2013-06-24 06:14:00,71.3,68.5,30.09,SSE,165,0.0,1.0,91,0.00,,,0.00,Wunderground v.1.15,2013-06-24 10:14:00,
2013-06-24 06:16:00,71.3,68.5,30.09,SSE,165,0.0,1.0,91,0.00,,,0.00,Wunderground v.1.15,2013-06-24 10:16:00,
2013-06-24 06:17:00,71.3,68.5,30.09,SSE,165,0.0,1.0,91,0.00,,,0.00,Wunderground v.1.15,2013-06-24 10:17:00,
2013-06-24 06:18:00,71.3,68.5,30.09,SSE,165,0.0,1.0,91,0.00,,,0.00,Wunderground v.1.15,2013-06-24 10:18:00,
2013-06-24 06:20:00,71.3,68.5,30.09,SSE,165,0.0,0.0,91,0.00,,,0.00,Wunderground v.1.15,2013-06-24 10:20:00,
2013-06-24 06:21:00,71.3,68.5,30.09,SSE,165,0.0,0.0,91,0.00,,,0.00,Wunderground v.1.15,2013-06-24 10:21:00,
2013-06-24 06:23:00,71.3,68.5,30.09,SSE,165,0.0,0.0,91,0.00,,,0.00,Wunderground v.1.15,2013-06-24 10:23:00,
2013-06-24 06:24:00,71.4,68.6,30.09,SSE,165,0.0,0.0,91,0.00,,,0.00,Wunderground v.1.15,2013-06-24 10:24:00,
2013-06-24 06:25:00,71.4,68.6,30.09,SSE,165,0.0,2.0,91,0.00,,,0.00,Wunderground v.1.15,2013-06-24 10:25:00,
2013-06-24 06:28:00,71.5,68.7,30.09,SSE,165,1.0,2.0,91,0.00,,,0.00,Wunderground v.1.15,2013-06-24 10:28:00,
2013-06-24 06:29:00,71.6,68.8,30.09,SSE,165,0.0,2.0,91,0.00,,,0.00,Wunderground v.1.15,2013-06-24 10:29:00,
2013-06-24 06:30:00,71.7,68.9,30.09,SSE,165,1.0,1.0,91,0.00,,,0.00,Wunderground v.1.15,2013-06-24 10:30:00,
2013-06-24 06:33:00,71.9,68.8,30.09,SSE,165,1.0,3.0,90,0.00,,,0.00,Wunderground v.1.15,2013-06-24 10:33:00,
2013-06-24 06:34:00,72.0,68.9,30.09,SSE,165,0.0,3.0,90,0.00,,,0.00,Wunderground v.1.15,2013-06-24 10:34:00,
2013-06-24 06:35:00,72.0,68.9,30.09,SSE,165,0.0,3.0,90,0.00,,,0.00,Wunderground v.1.15,2013-06-24 10:35:00,
2013-06-24 06:39:00,72.2,69.1,30.09,SSE,165,0.0,3.0,90,0.00,,,0.00,Wunderground v.1.15,2013-06-24 10:39:00,
2013-06-24 06:40:00,72.2,68.8,30.09,SSE,165,0.0,1.0,89,0.00,,,0.00,Wunderground v.1.15,2013-06-24 10:40:00,
2013-06-24 06:44:00,72.3,68.9,30.09,SSE,165,3.0,4.0,89,0.00,,,0.00,Wunderground v.1.15,2013-06-24 10:44:00,
2013-06-24 06:46:00,72.3,68.9,30.10,SSE,165,1.0,4.0,89,0.00,,,0.00,Wunderground v.1.15,2013-06-24 10:46:00,
2013-06-24 06:47:00,72.4,69.0,30.09,SSE,165,0.0,4.0,89,0.00,,,0.00,Wunderground v.1.15,2013-06-24 10:47:00,
2013-06-24 06:49:00,72.4,69.0,30.10,SSE,165,0.0,0.0,89,0.00,,,0.00,Wunderground v.1.15,2013-06-24 10:49:00,
2013-06-24 06:52:00,72.4,69.0,30.10,SSE,165,1.0,1.0,89,0.00,,,0.00,Wunderground v.1.15,2013-06-24 10:52:00,
2013-06-24 06:55:00,72.5,69.1,30.09,SSE,165,0.0,2.0,89,0.00,,,0.00,Wunderground v.1.15,2013-06-24 10:55:00,
2013-06-24 06:57:00,72.5,69.1,30.10,SSE,165,0.0,2.0,89,0.00,,,0.00,Wunderground v.1.15,2013-06-24 10:57:00,
2013-06-24 07:00:00,72.5,69.1,30.10,SSE,165,0.0,0.0,89,0.00,,,0.00,Wunderground v.1.15,2013-06-24 11:00:00,
2013-06-24 07:03:00,72.5,69.1,30.10,SSE,165,3.0,3.0,89,0.00,,,0.00,Wunderground v.1.15,2013-06-24 11:03:00,
2013-06-24 07:05:00,72.5,69.1,30.10,SSE,165,1.0,3.0,89,0.00,,,0.00,Wunderground v.1.15,2013-06-24 11:05:00,
2013-06-24 07:06:00,72.5,69.1,30.10,SSE,165,0.0,3.0,89,0.00,,,0.00,Wunderground v.1.15,2013-06-24 11:06:00,
2013-06-24 07:08:00,72.5,69.1,30.10,SSE,165,2.0,3.0,89,0.00,,,0.00,Wunderground v.1.15,2013-06-24 11:08:00,
2013-06-24 07:10:00,72.4,69.0,30.10,SSE,165,2.0,2.0,89,0.00,,,0.00,Wunderground v.1.15,2013-06-24 11:10:00,
2013-06-24 07:11:00,72.3,68.9,30.10,SSE,165,0.0,2.0,89,0.00,,,0.00,Wunderground v.1.15,2013-06-24 11:11:00,
2013-06-24 07:12:00,72.4,69.0,30.10,SSE,165,0.0,2.0,89,0.00,,,0.00,Wunderground v.1.15,2013-06-24 11:12:00,
2013-06-24 07:13:00,72.3,68.9,30.10,SSE,165,1.0,2.0,89,0.00,,,0.00,Wunderground v.1.15,2013-06-24 11:13:00,
2013-06-24 07:17:00,72.5,69.1,30.10,South,173,0.0,4.0,89,0.00,,,0.00,Wunderground v.1.15,2013-06-24 11:17:00,
2013-06-24 07:18:00,72.5,69.1,30.10,South,173,0.0,4.0,89,0.00,,,0.00,Wunderground v.1.15,2013-06-24 11:18:00,
2013-06-24 07:19:00,72.6,69.2,30.09,South,173,1.0,4.0,89,0.00,,,0.00,Wunderground v.1.15,2013-06-24 11:19:00,
2013-06-24 07:23:00,72.9,69.5,30.10,South,173,0.0,2.0,89,0.00,,,0.00,Wunderground v.1.15,2013-06-24 11:23:00,
2013-06-24 07:25:00,73.1,70.0,30.10,South,173,0.0,2.0,90,0.00,,,0.00,Wunderground v.1.15,2013-06-24 11:25:00,
2013-06-24 07:28:00,73.2,69.4,30.10,South,173,0.0,3.0,88,0.00,,,0.00,Wunderground v.1.15,2013-06-24 11:28:00,
2013-06-24 07:29:00,73.3,69.5,30.10,South,173,4.0,4.0,88,0.00,,,0.00,Wunderground v.1.15,2013-06-24 11:29:00,
2013-06-24 07:30:00,73.4,69.6,30.10,SSE,167,2.0,4.0,88,0.00,,,0.00,Wunderground v.1.15,2013-06-24 11:30:00,
2013-06-24 07:33:00,73.7,69.9,30.10,SSE,168,0.0,4.0,88,0.00,,,0.00,Wunderground v.1.15,2013-06-24 11:33:00,
2013-06-24 07:34:00,73.7,69.9,30.10,SSE,168,0.0,4.0,88,0.00,,,0.00,Wunderground v.1.15,2013-06-24 11:34:00,
2013-06-24 07:37:00,73.9,70.1,30.10,SSE,168,0.0,4.0,88,0.00,,,0.00,Wunderground v.1.15,2013-06-24 11:37:00,
2013-06-24 07:39:00,73.9,70.1,30.10,SSE,168,0.0,4.0,88,0.00,,,0.00,Wunderground v.1.15,2013-06-24 11:39:00,
2013-06-24 07:40:00,73.9,70.1,30.10,SSE,168,1.0,2.0,88,0.00,,,0.00,Wunderground v.1.15,2013-06-24 11:40:00,
2013-06-24 07:41:00,73.9,70.1,30.10,SSE,168,0.0,2.0,88,0.00,,,0.00,Wunderground v.1.15,2013-06-24 11:41:00,
2013-06-24 07:42:00,73.9,70.1,30.10,SSE,168,1.0,2.0,88,0.00,,,0.00,Wunderground v.1.15,2013-06-24 11:42:00,
2013-06-24 07:44:00,73.9,70.1,30.10,SSE,168,0.0,2.0,88,0.00,,,0.00,Wunderground v.1.15,2013-06-24 11:44:00,
2013-06-24 07:46:00,73.9,70.1,30.11,SSE,168,0.0,2.0,88,0.00,,,0.00,Wunderground v.1.15,2013-06-24 11:46:00,
2013-06-24 07:48:00,73.9,70.1,30.11,SSE,168,0.0,2.0,88,0.00,,,0.00,Wunderground v.1.15,2013-06-24 11:48:00,
2013-06-24 07:49:00,73.9,70.1,30.11,SSE,168,0.0,2.0,88,0.00,,,0.00,Wunderground v.1.15,2013-06-24 11:49:00,
2013-06-24 07:51:00,73.9,70.1,30.11,SSE,168,0.0,0.0,88,0.00,,,0.00,Wunderground v.1.15,2013-06-24 11:51:00,
2013-06-24 07:53:00,73.9,70.5,30.11,SSE,168,0.0,0.0,89,0.00,,,0.00,Wunderground v.1.15,2013-06-24 11:53:00,
2013-06-24 07:54:00,73.9,70.1,30.11,SSE,168,0.0,0.0,88,0.00,,,0.00,Wunderground v.1.15,2013-06-24 11:54:00,
2013-06-24 07:58:00,74.0,70.6,30.11,SSE,168,0.0,1.0,89,0.00,,,0.00,Wunderground v.1.15,2013-06-24 11:58:00,
2013-06-24 08:00:00,74.0,70.6,30.11,SSE,168,0.0,0.0,89,0.00,,,0.00,Wunderground v.1.15,2013-06-24 12:00:00,
2013-06-24 08:01:00,74.0,70.6,30.11,SSE,168,0.0,0.0,89,0.00,,,0.00,Wunderground v.1.15,2013-06-24 12:01:00,
2013-06-24 08:03:00,74.0,70.9,30.12,SSE,168,0.0,1.0,90,0.00,,,0.00,Wunderground v.1.15,2013-06-24 12:03:00,
2013-06-24 08:05:00,74.1,71.0,30.12,SSE,168,0.0,1.0,90,0.00,,,0.00,Wunderground v.1.15,2013-06-24 12:05:00,
2013-06-24 08:06:00,74.1,71.0,30.12,SSE,168,0.0,1.0,90,0.00,,,0.00,Wunderground v.1.15,2013-06-24 12:06:00,
2013-06-24 08:10:00,74.1,70.6,30.12,SSE,168,0.0,0.0,89,0.00,,,0.00,Wunderground v.1.15,2013-06-24 12:10:00,
2013-06-24 08:12:00,74.1,71.0,30.12,SSE,168,0.0,0.0,90,0.00,,,0.00,Wunderground v.1.15,2013-06-24 12:12:00,
2013-06-24 08:15:00,74.1,71.0,30.12,SSE,168,0.0,0.0,90,0.00,,,0.00,Wunderground v.1.15,2013-06-24 12:15:00,
2013-06-24 08:16:00,74.1,71.0,30.12,SSE,168,0.0,1.0,90,0.00,,,0.00,Wunderground v.1.15,2013-06-24 12:16:00,
2013-06-24 08:17:00,74.1,70.6,30.12,SSE,168,0.0,1.0,89,0.00,,,0.00,Wunderground v.1.15,2013-06-24 12:17:00,
2013-06-24 08:21:00,74.2,71.1,30.12,SSE,168,0.0,0.0,90,0.00,,,0.00,Wunderground v.1.15,2013-06-24 12:21:00,
2013-06-24 08:23:00,74.3,71.2,30.13,SSE,168,0.0,0.0,90,0.00,,,0.00,Wunderground v.1.15,2013-06-24 12:23:00,
2013-06-24 08:25:00,74.4,70.9,30.13,SSE,168,1.0,1.0,89,0.00,,,0.00,Wunderground v.1.15,2013-06-24 12:25:00,
2013-06-24 08:27:00,74.5,70.7,30.13,SSE,168,0.0,1.0,88,0.00,,,0.00,Wunderground v.1.15,2013-06-24 12:27:00,
2013-06-24 08:28:00,74.5,70.7,30.13,SSE,168,0.0,1.0,88,0.00,,,0.00,Wunderground v.1.15,2013-06-24 12:28:00,
2013-06-24 08:30:00,74.6,70.8,30.13,SSE,168,1.0,1.0,88,0.00,,,0.00,Wunderground v.1.15,2013-06-24 12:30:00,
2013-06-24 08:34:00,74.8,71.3,30.13,SSE,168,0.0,1.0,89,0.00,,,0.00,Wunderground v.1.15,2013-06-24 12:34:00,
2013-06-24 08:35:00,74.8,71.3,30.13,SSE,168,0.0,1.0,89,0.00,,,0.00,Wunderground v.1.15,2013-06-24 12:35:00,
2013-06-24 08:36:00,74.9,71.8,30.13,SSE,168,0.0,1.0,90,0.00,,,0.00,Wunderground v.1.15,2013-06-24 12:36:00,
2013-06-24 08:39:00,75.0,71.9,30.13,SSE,168,0.0,0.0,90,0.00,,,0.00,Wunderground v.1.15,2013-06-24 12:39:00,
2013-06-24 08:40:00,75.0,71.9,30.13,SSE,168,1.0,1.0,90,0.00,,,0.00,Wunderground v.1.15,2013-06-24 12:40:00,
2013-06-24 08:41:00,75.1,71.6,30.13,SSE,168,1.0,1.0,89,0.00,,,0.00,Wunderground v.1.15,2013-06-24 12:41:00,
2013-06-24 08:44:00,75.1,71.6,30.13,SSE,168,0.0,1.0,89,0.00,,,0.00,Wunderground v.1.15,2013-06-24 12:44:00,
2013-06-24 08:45:00,75.1,71.6,30.13,SSE,168,0.0,1.0,89,0.00,,,0.00,Wunderground v.1.15,2013-06-24 12:45:00,
2013-06-24 08:47:00,75.1,71.6,30.13,SSE,168,0.0,1.0,89,0.00,,,0.00,Wunderground v.1.15,2013-06-24 12:47:00,
2013-06-24 08:48:00,75.1,71.6,30.13,SSE,168,0.0,1.0,89,0.00,,,0.00,Wunderground v.1.15,2013-06-24 12:48:00,
2013-06-24 08:50:00,75.1,71.6,30.13,SSE,168,0.0,0.0,89,0.00,,,0.00,Wunderground v.1.15,2013-06-24 12:50:00,
2013-06-24 08:52:00,75.2,71.7,30.14,SSE,168,0.0,1.0,89,0.00,,,0.00,Wunderground v.1.15,2013-06-24 12:52:00,
2013-06-24 08:53:00,75.3,71.8,30.13,SSE,168,0.0,1.0,89,0.00,,,0.00,Wunderground v.1.15,2013-06-24 12:53:00,
2013-06-24 08:55:00,75.4,71.9,30.14,SSE,168,0.0,1.0,89,0.00,,,0.00,Wunderground v.1.15,2013-06-24 12:55:00,
2013-06-24 08:58:00,75.5,72.0,30.14,SSE,168,0.0,1.0,89,0.00,,,0.00,Wunderground v.1.15,2013-06-24 12:58:00,
2013-06-24 09:02:00,75.6,71.8,30.14,SSE,168,3.0,3.0,88,0.00,,,0.00,Wunderground v.1.15,2013-06-24 13:02:00,
2013-06-24 09:03:00,75.6,71.8,30.14,SSE,168,3.0,3.0,88,0.00,,,0.00,Wunderground v.1.15,2013-06-24 13:03:00,
2013-06-24 09:04:00,75.6,71.8,30.14,SSE,168,1.0,4.0,88,0.00,,,0.00,Wunderground v.1.15,2013-06-24 13:04:00,
2013-06-24 09:08:00,75.8,72.0,30.14,SSE,168,0.0,4.0,88,0.00,,,0.00,Wunderground v.1.15,2013-06-24 13:08:00,
2013-06-24 09:09:00,75.9,72.1,30.14,SSE,168,2.0,4.0,88,0.00,,,0.00,Wunderground v.1.15,2013-06-24 13:09:00,
2013-06-24 09:12:00,76.0,72.2,30.14,SSE,168,0.0,4.0,88,0.00,,,0.00,Wunderground v.1.15,2013-06-24 13:12:00,
2013-06-24 09:14:00,76.0,71.8,30.14,South,170,4.0,4.0,87,0.00,,,0.00,Wunderground v.1.15,2013-06-24 13:14:00,
2013-06-24 09:18:00,75.6,71.5,30.14,South,169,1.0,4.0,87,0.00,,,0.00,Wunderground v.1.15,2013-06-24 13:18:00,
2013-06-24 09:19:00,75.5,71.4,30.14,South,170,3.0,3.0,87,0.00,,,0.00,Wunderground v.1.15,2013-06-24 13:19:00,
2013-06-24 09:20:00,75.5,71.4,30.14,South,170,3.0,4.0,87,0.00,,,0.00,Wunderground v.1.15,2013-06-24 13:20:00,
2013-06-24 09:23:00,75.2,71.4,30.14,South,170,2.0,4.0,88,0.00,,,0.00,Wunderground v.1.15,2013-06-24 13:23:00,
2013-06-24 09:25:00,75.3,71.8,30.14,South,170,2.0,4.0,89,0.00,,,0.00,Wunderground v.1.15,2013-06-24 13:25:00,
2013-06-24 09:26:00,75.3,71.5,30.14,South,170,1.0,4.0,88,0.00,,,0.00,Wunderground v.1.15,2013-06-24 13:26:00,
2013-06-24 09:28:00,75.4,71.6,30.14,South,170,0.0,4.0,88,0.00,,,0.00,Wunderground v.1.15,2013-06-24 13:28:00,
2013-06-24 09:31:00,75.7,72.2,30.14,South,169,0.0,2.0,89,0.00,,,0.00,Wunderground v.1.15,2013-06-24 13:31:00,
2013-06-24 09:32:00,75.8,72.0,30.14,South,173,4.0,5.0,88,0.00,,,0.00,Wunderground v.1.15,2013-06-24 13:32:00,
2013-06-24 09:34:00,76.0,71.8,30.14,South,173,5.0,6.0,87,0.00,,,0.00,Wunderground v.1.15,2013-06-24 13:34:00,
2013-06-24 09:36:00,76.0,71.2,30.14,South,173,2.0,6.0,85,0.00,,,0.00,Wunderground v.1.15,2013-06-24 13:36:00,
2013-06-24 09:37:00,76.0,71.8,30.14,South,173,2.0,6.0,87,0.00,,,0.00,Wunderground v.1.15,2013-06-24 13:37:00,
2013-06-24 09:38:00,76.1,71.9,30.14,South,173,0.0,6.0,87,0.00,,,0.00,Wunderground v.1.15,2013-06-24 13:38:00,
2013-06-24 09:40:00,76.4,72.2,30.14,South,173,0.0,1.0,87,0.00,,,0.00,Wunderground v.1.15,2013-06-24 13:40:00,
2013-06-24 09:41:00,76.4,72.2,30.15,South,173,0.0,1.0,87,0.00,,,0.00,Wunderground v.1.15,2013-06-24 13:41:00,
2013-06-24 09:43:00,76.7,72.9,30.14,South,173,0.0,2.0,88,0.00,,,0.00,Wunderground v.1.15,2013-06-24 13:43:00,
2013-06-24 09:44:00,76.8,72.6,30.14,South,173,2.0,2.0,87,0.00,,,0.00,Wunderground v.1.15,2013-06-24 13:44:00,
2013-06-24 09:46:00,77.0,72.8,30.14,South,173,5.0,5.0,87,0.00,,,0.00,Wunderground v.1.15,2013-06-24 13:46:00,
2013-06-24 09:48:00,77.1,71.9,30.15,South,173,1.0,5.0,84,0.00,,,0.00,Wunderground v.1.15,2013-06-24 13:48:00,
2013-06-24 09:49:00,77.2,72.3,30.15,South,173,0.0,5.0,85,0.00,,,0.00,Wunderground v.1.15,2013-06-24 13:49:00,
2013-06-24 09:52:00,77.3,72.4,30.15,South,173,1.0,4.0,85,0.00,,,0.00,Wunderground v.1.15,2013-06-24 13:52:00,
2013-06-24 09:54:00,77.4,71.8,30.15,South,173,5.0,5.0,83,0.00,,,0.00,Wunderground v.1.15,2013-06-24 13:54:00,
2013-06-24 09:57:00,77.4,72.2,30.14,South,173,1.0,5.0,84,0.00,,,0.00,Wunderground v.1.15,2013-06-24 13:57:00,
2013-06-24 09:59:00,77.4,72.2,30.14,South,173,1.0,2.0,84,0.00,,,0.00,Wunderground v.1.15,2013-06-24 13:59:00,
2013-06-24 10:00:00,77.5,72.6,30.14,South,173,0.0,2.0,85,0.00,,,0.00,Wunderground v.1.15,2013-06-24 14:00:00,
2013-06-24 10:04:00,77.8,73.3,30.15,South,173,1.0,2.0,86,0.00,,,0.00,Wunderground v.1.15,2013-06-24 14:04:00,
2013-06-24 10:05:00,77.9,73.0,30.15,South,173,1.0,2.0,85,0.00,,,0.00,Wunderground v.1.15,2013-06-24 14:05:00,
2013-06-24 10:06:00,78.0,73.1,30.15,South,173,0.0,2.0,85,0.00,,,0.00,Wunderground v.1.15,2013-06-24 14:06:00,
2013-06-24 10:07:00,78.2,73.7,30.15,South,173,1.0,2.0,86,0.00,,,0.00,Wunderground v.1.15,2013-06-24 14:07:00,
2013-06-24 10:09:00,78.5,74.0,30.15,South,173,1.0,2.0,86,0.00,,,0.00,Wunderground v.1.15,2013-06-24 14:09:00,
2013-06-24 10:10:00,78.7,73.8,30.14,South,173,0.0,1.0,85,0.00,,,0.00,Wunderground v.1.15,2013-06-24 14:10:00,
2013-06-24 10:12:00,78.8,72.8,30.14,South,173,0.0,2.0,82,0.00,,,0.00,Wunderground v.1.15,2013-06-24 14:12:00,
2013-06-24 10:15:00,78.7,72.4,30.15,South,183,6.0,7.0,81,0.00,,,0.00,Wunderground v.1.15,2013-06-24 14:15:00,
2013-06-24 10:17:00,78.7,72.0,30.15,South,183,2.0,7.0,80,0.00,,,0.00,Wunderground v.1.15,2013-06-24 14:17:00,
2013-06-24 10:18:00,78.7,72.4,30.15,South,183,2.0,7.0,81,0.00,,,0.00,Wunderground v.1.15,2013-06-24 14:18:00,
2013-06-24 10:21:00,78.7,72.0,30.14,South,183,4.0,6.0,80,0.00,,,0.00,Wunderground v.1.15,2013-06-24 14:21:00,
2013-06-24 10:22:00,78.7,72.4,30.14,South,183,2.0,6.0,81,0.00,,,0.00,Wunderground v.1.15,2013-06-24 14:22:00,
2013-06-24 10:23:00,78.6,72.3,30.14,South,183,2.0,6.0,81,0.00,,,0.00,Wunderground v.1.15,2013-06-24 14:23:00,
2013-06-24 10:25:00,78.6,71.9,30.14,South,183,2.0,6.0,80,0.00,,,0.00,Wunderground v.1.15,2013-06-24 14:25:00,
2013-06-24 10:28:00,78.7,72.7,30.14,South,183,3.0,6.0,82,0.00,,,0.00,Wunderground v.1.15,2013-06-24 14:28:00,
2013-06-24 10:30:00,78.8,72.8,30.14,South,183,0.0,2.0,82,0.00,,,0.00,Wunderground v.1.15,2013-06-24 14:30:00,
2013-06-24 10:32:00,78.9,72.6,30.14,South,183,0.0,2.0,81,0.00,,,0.00,Wunderground v.1.15,2013-06-24 14:32:00,
2013-06-24 10:34:00,79.2,73.2,30.14,South,183,0.0,2.0,82,0.00,,,0.00,Wunderground v.1.15,2013-06-24 14:34:00,
2013-06-24 10:36:00,79.4,72.7,30.14,South,183,0.0,2.0,80,0.00,,,0.00,Wunderground v.1.15,2013-06-24 14:36:00,
2013-06-24 10:38:00,79.4,73.1,30.14,South,183,0.0,2.0,81,0.00,,,0.00,Wunderground v.1.15,2013-06-24 14:38:00,
2013-06-24 10:39:00,79.5,72.4,30.14,South,183,1.0,2.0,79,0.00,,,0.00,Wunderground v.1.15,2013-06-24 14:39:00,
2013-06-24 10:41:00,79.6,72.5,30.14,South,183,0.0,2.0,79,0.00,,,0.00,Wunderground v.1.15,2013-06-24 14:41:00,
2013-06-24 10:43:00,79.8,73.1,30.14,South,183,1.0,3.0,80,0.00,,,0.00,Wunderground v.1.15,2013-06-24 14:43:00,
2013-06-24 10:44:00,79.9,73.2,30.14,South,183,1.0,3.0,80,0.00,,,0.00,Wunderground v.1.15,2013-06-24 14:44:00,
2013-06-24 10:45:00,79.9,73.2,30.14,South,183,2.0,3.0,80,0.00,,,0.00,Wunderground v.1.15,2013-06-24 14:45:00,
2013-06-24 10:46:00,80.0,73.3,30.14,South,183,2.0,4.0,80,0.00,,,0.00,Wunderground v.1.15,2013-06-24 14:46:00,
2013-06-24 10:49:00,80.0,72.9,30.14,South,175,2.0,5.0,79,0.00,,,0.00,Wunderground v.1.15,2013-06-24 14:49:00,
2013-06-24 10:50:00,80.0,72.9,30.14,South,175,0.0,2.0,79,0.00,,,0.00,Wunderground v.1.15,2013-06-24 14:50:00,
2013-06-24 10:51:00,80.0,72.9,30.14,South,175,2.0,2.0,79,0.00,,,0.00,Wunderground v.1.15,2013-06-24 14:51:00,
2013-06-24 10:52:00,80.1,72.6,30.14,South,175,2.0,3.0,78,0.00,,,0.00,Wunderground v.1.15,2013-06-24 14:52:00,
2013-06-24 10:54:00,80.0,72.9,30.14,South,175,1.0,5.0,79,0.00,,,0.00,Wunderground v.1.15,2013-06-24 14:54:00,
2013-06-24 10:56:00,80.2,73.5,30.14,South,176,2.0,5.0,80,0.00,,,0.00,Wunderground v.1.15,2013-06-24 14:56:00,
2013-06-24 10:59:00,80.3,73.9,30.14,South,176,3.0,5.0,81,0.00,,,0.00,Wunderground v.1.15,2013-06-24 14:59:00,
2013-06-24 11:02:00,80.4,74.0,30.14,South,178,0.0,5.0,81,0.00,,,0.00,Wunderground v.1.15,2013-06-24 15:02:00,
2013-06-24 11:04:00,80.5,73.4,30.13,South,178,1.0,5.0,79,0.00,,,0.00,Wunderground v.1.15,2013-06-24 15:04:00,
2013-06-24 11:05:00,80.6,74.2,30.13,South,178,4.0,5.0,81,0.00,,,0.00,Wunderground v.1.15,2013-06-24 15:05:00,
2013-06-24 11:07:00,80.5,73.4,30.14,South,178,1.0,5.0,79,0.00,,,0.00,Wunderground v.1.15,2013-06-24 15:07:00,
2013-06-24 11:09:00,80.4,73.7,30.13,South,178,2.0,5.0,80,0.00,,,0.00,Wunderground v.1.15,2013-06-24 15:09:00,
2013-06-24 11:10:00,80.5,74.5,30.13,South,178,1.0,3.0,82,0.00,,,0.00,Wunderground v.1.15,2013-06-24 15:10:00,
2013-06-24 11:11:00,80.5,74.5,30.14,South,178,1.0,3.0,82,0.00,,,0.00,Wunderground v.1.15,2013-06-24 15:11:00,
2013-06-24 11:13:00,80.5,73.4,30.13,South,178,3.0,4.0,79,0.00,,,0.00,Wunderground v.1.15,2013-06-24 15:13:00,
2013-06-24 11:14:00,80.5,74.1,30.14,South,178,0.0,4.0,81,0.00,,,0.00,Wunderground v.1.15,2013-06-24 15:14:00,
2013-06-24 11:16:00,80.6,74.2,30.13,South,178,2.0,4.0,81,0.00,,,0.00,Wunderground v.1.15,2013-06-24 15:16:00,
2013-06-24 11:17:00,80.7,74.3,30.14,South,178,0.0,4.0,81,0.00,,,0.00,Wunderground v.1.15,2013-06-24 15:17:00,
2013-06-24 11:18:00,80.8,74.4,30.13,South,178,3.0,4.0,81,0.00,,,0.00,Wunderground v.1.15,2013-06-24 15:18:00,
2013-06-24 11:21:00,81.2,75.2,30.13,South,176,1.0,2.0,82,0.00,,,0.00,Wunderground v.1.15,2013-06-24 15:21:00,
2013-06-24 11:22:00,81.4,74.3,30.13,South,178,2.0,5.0,79,0.00,,,0.00,Wunderground v.1.15,2013-06-24 15:22:00,
2013-06-24 11:24:00,81.5,74.0,30.13,South,179,4.0,5.0,78,0.00,,,0.00,Wunderground v.1.15,2013-06-24 15:24:00,
2013-06-24 11:26:00,81.4,73.1,30.13,South,179,1.0,5.0,76,0.00,,,0.00,Wunderground v.1.15,2013-06-24 15:26:00,
2013-06-24 11:27:00,81.4,75.0,30.13,South,179,2.0,5.0,81,0.00,,,0.00,Wunderground v.1.15,2013-06-24 15:27:00,
2013-06-24 11:29:00,81.3,73.4,30.13,South,179,2.0,5.0,77,0.00,,,0.00,Wunderground v.1.15,2013-06-24 15:29:00,
2013-06-24 11:31:00,81.2,72.9,30.13,South,179,3.0,4.0,76,0.00,,,0.00,Wunderground v.1.15,2013-06-24 15:31:00,
2013-06-24 11:34:00,81.1,74.7,30.14,South,179,0.0,4.0,81,0.00,,,0.00,Wunderground v.1.15,2013-06-24 15:34:00,
2013-06-24 11:35:00,81.1,74.3,30.13,South,179,3.0,4.0,80,0.00,,,0.00,Wunderground v.1.15,2013-06-24 15:35:00,
2013-06-24 11:37:00,80.9,74.1,30.13,South,179,1.0,4.0,80,0.00,,,0.00,Wunderground v.1.15,2013-06-24 15:37:00,
2013-06-24 11:40:00,80.7,73.6,30.13,South,179,2.0,2.0,79,0.00,,,0.00,Wunderground v.1.15,2013-06-24 15:40:00,
2013-06-24 11:43:00,80.7,73.6,30.13,South,179,0.0,3.0,79,0.00,,,0.00,Wunderground v.1.15,2013-06-24 15:43:00,
2013-06-24 11:45:00,80.8,72.9,30.13,South,179,1.0,3.0,77,0.00,,,0.00,Wunderground v.1.15,2013-06-24 15:45:00,
2013-06-24 11:47:00,81.0,73.5,30.13,South,179,1.0,3.0,78,0.00,,,0.00,Wunderground v.1.15,2013-06-24 15:47:00,
2013-06-24 11:48:00,81.0,73.1,30.13,South,179,4.0,5.0,77,0.00,,,0.00,Wunderground v.1.15,2013-06-24 15:48:00,
2013-06-24 11:50:00,81.0,73.5,30.13,South,179,1.0,2.0,78,0.00,,,0.00,Wunderground v.1.15,2013-06-24 15:50:00,
2013-06-24 11:53:00,80.9,73.8,30.13,South,179,0.0,4.0,79,0.00,,,0.00,Wunderground v.1.15,2013-06-24 15:53:00,
2013-06-24 11:54:00,80.9,74.1,30.13,South,180,6.0,6.0,80,0.00,,,0.00,Wunderground v.1.15,2013-06-24 15:54:00,
2013-06-24 11:55:00,80.9,72.6,30.13,South,179,2.0,7.0,76,0.00,,,0.00,Wunderground v.1.15,2013-06-24 15:55:00,
2013-06-24 11:56:00,80.9,72.6,30.13,South,180,1.0,7.0,76,0.00,,,0.00,Wunderground v.1.15,2013-06-24 15:56:00,
2013-06-24 11:58:00,81.1,74.0,30.13,South,179,0.0,7.0,79,0.00,,,0.00,Wunderground v.1.15,2013-06-24 15:58:00,
2013-06-24 11:59:00,81.2,74.1,30.13,South,180,0.0,1.0,79,0.00,,,0.00,Wunderground v.1.15,2013-06-24 15:59:00,
2013-06-24 12:01:00,81.4,73.1,30.13,South,179,1.0,2.0,76,0.00,,,0.00,Wunderground v.1.15,2013-06-24 16:01:00,
2013-06-24 12:03:00,81.9,74.7,30.13,South,180,2.0,4.0,79,0.00,,,0.00,Wunderground v.1.15,2013-06-24 16:03:00,
2013-06-24 12:05:00,82.0,73.7,30.13,South,181,2.0,4.0,76,0.00,,,0.00,Wunderground v.1.15,2013-06-24 16:05:00,
2013-06-24 12:06:00,82.1,72.6,30.13,South,184,5.0,5.0,73,0.00,,,0.00,Wunderground v.1.15,2013-06-24 16:06:00,
2013-06-24 12:09:00,82.1,72.2,30.13,South,184,1.0,6.0,72,0.00,,,0.00,Wunderground v.1.15,2013-06-24 16:09:00,
2013-06-24 12:10:00,82.2,72.7,30.13,South,184,3.0,3.0,73,0.00,,,0.00,Wunderground v.1.15,2013-06-24 16:10:00,
2013-06-24 12:12:00,82.2,71.4,30.13,South,184,1.0,5.0,70,0.00,,,0.00,Wunderground v.1.15,2013-06-24 16:12:00,
2013-06-24 12:15:00,82.3,73.2,30.13,South,184,0.0,5.0,74,0.00,,,0.00,Wunderground v.1.15,2013-06-24 16:15:00,
2013-06-24 12:17:00,82.4,74.1,30.12,South,185,0.0,5.0,76,0.00,,,0.00,Wunderground v.1.15,2013-06-24 16:17:00,
2013-06-24 12:20:00,82.4,74.5,30.13,South,188,5.0,5.0,77,0.00,,,0.00,Wunderground v.1.15,2013-06-24 16:20:00,
2013-06-24 12:22:00,82.4,73.7,30.13,South,188,1.0,5.0,75,0.00,,,0.00,Wunderground v.1.15,2013-06-24 16:22:00,
2013-06-24 12:23:00,82.4,73.7,30.13,South,187,1.0,5.0,75,0.00,,,0.00,Wunderground v.1.15,2013-06-24 16:23:00,
2013-06-24 12:25:00,82.5,74.2,30.13,South,188,1.0,5.0,76,0.00,,,0.00,Wunderground v.1.15,2013-06-24 16:25:00,
2013-06-24 12:27:00,82.7,73.6,30.13,South,188,1.0,5.0,74,0.00,,,0.00,Wunderground v.1.15,2013-06-24 16:27:00,
2013-06-24 12:28:00,82.8,74.1,30.13,South,188,2.0,5.0,75,0.00,,,0.00,Wunderground v.1.15,2013-06-24 16:28:00,
2013-06-24 12:31:00,83.0,72.6,30.13,South,189,3.0,6.0,71,0.00,,,0.00,Wunderground v.1.15,2013-06-24 16:31:00,
2013-06-24 12:34:00,83.0,73.9,30.13,South,188,1.0,6.0,74,0.00,,,0.00,Wunderground v.1.15,2013-06-24 16:34:00,
2013-06-24 12:36:00,82.9,73.4,30.12,South,188,2.0,6.0,73,0.00,,,0.00,Wunderground v.1.15,2013-06-24 16:36:00,
2013-06-24 12:39:00,82.7,72.7,30.12,South,188,0.0,6.0,72,0.00,,,0.00,Wunderground v.1.15,2013-06-24 16:39:00,
2013-06-24 12:40:00,82.8,73.7,30.12,South,188,2.0,2.0,74,0.00,,,0.00,Wunderground v.1.15,2013-06-24 16:40:00,
2013-06-24 12:43:00,82.9,72.9,30.12,South,188,2.0,2.0,72,0.00,,,0.00,Wunderground v.1.15,2013-06-24 16:43:00,
2013-06-24 12:45:00,83.2,74.4,30.12,South,188,1.0,2.0,75,0.00,,,0.00,Wunderground v.1.15,2013-06-24 16:45:00,
2013-06-24 12:49:00,83.5,73.9,30.12,South,189,1.0,7.0,73,0.00,,,0.00,Wunderground v.1.15,2013-06-24 16:49:00,
2013-06-24 12:50:00,83.6,74.8,30.12,South,189,1.0,2.0,75,0.00,,,0.00,Wunderground v.1.15,2013-06-24 16:50:00,
2013-06-24 12:51:00,83.6,74.8,30.12,South,189,0.0,2.0,75,0.00,,,0.00,Wunderground v.1.15,2013-06-24 16:51:00,
2013-06-24 12:54:00,83.9,75.1,30.11,South,189,0.0,3.0,75,0.00,,,0.00,Wunderground v.1.15,2013-06-24 16:54:00,
2013-06-24 12:55:00,84.0,74.4,30.11,South,189,3.0,3.0,73,0.00,,,0.00,Wunderground v.1.15,2013-06-24 16:55:00,
2013-06-24 12:56:00,84.0,74.4,30.11,South,189,0.0,3.0,73,0.00,,,0.00,Wunderground v.1.15,2013-06-24 16:56:00,
2013-06-24 13:00:00,84.2,74.6,30.11,South,189,2.0,2.0,73,0.00,,,0.00,Wunderground v.1.15,2013-06-24 17:00:00,
2013-06-24 13:01:00,84.2,72.5,30.11,South,189,2.0,2.0,68,0.00,,,0.00,Wunderground v.1.15,2013-06-24 17:01:00,
2013-06-24 13:05:00,84.3,73.0,30.11,South,188,0.0,5.0,69,0.00,,,0.00,Wunderground v.1.15,2013-06-24 17:05:00,
2013-06-24 13:07:00,84.3,73.9,30.11,South,190,0.0,5.0,71,0.00,,,0.00,Wunderground v.1.15,2013-06-24 17:07:00,
2013-06-24 13:11:00,84.5,74.1,30.11,South,190,3.0,3.0,71,0.00,,,0.00,Wunderground v.1.15,2013-06-24 17:11:00,
2013-06-24 13:12:00,84.5,73.6,30.10,South,190,1.0,3.0,70,0.00,,,0.00,Wunderground v.1.15,2013-06-24 17:12:00,
2013-06-24 13:13:00,84.5,73.6,30.10,South,190,3.0,3.0,70,0.00,,,0.00,Wunderground v.1.15,2013-06-24 17:13:00,
2013-06-24 13:14:00,84.5,74.1,30.10,South,190,1.0,3.0,71,0.00,,,0.00,Wunderground v.1.15,2013-06-24 17:14:00,
2013-06-24 13:17:00,84.6,73.7,30.10,South,190,0.0,3.0,70,0.00,,,0.00,Wunderground v.1.15,2013-06-24 17:17:00,
2013-06-24 13:18:00,84.7,74.7,30.10,South,190,2.0,3.0,72,0.00,,,0.00,Wunderground v.1.15,2013-06-24 17:18:00,
2013-06-24 13:19:00,84.7,74.3,30.10,South,190,3.0,3.0,71,0.00,,,0.00,Wunderground v.1.15,2013-06-24 17:19:00,
2013-06-24 13:22:00,84.6,75.0,30.10,South,190,2.0,4.0,73,0.00,,,0.00,Wunderground v.1.15,2013-06-24 17:22:00,
2013-06-24 13:23:00,84.6,72.4,30.10,South,188,1.0,5.0,67,0.00,,,0.00,Wunderground v.1.15,2013-06-24 17:23:00,
2013-06-24 13:25:00,84.6,74.2,30.10,South,188,1.0,5.0,71,0.00,,,0.00,Wunderground v.1.15,2013-06-24 17:25:00,
2013-06-24 13:28:00,84.7,73.4,30.10,South,190,2.0,5.0,69,0.00,,,0.00,Wunderground v.1.15,2013-06-24 17:28:00,
2013-06-24 13:31:00,84.8,74.3,30.10,South,190,0.0,4.0,71,0.00,,,0.00,Wunderground v.1.15,2013-06-24 17:31:00,
2013-06-24 13:33:00,84.9,73.6,30.10,South,190,3.0,4.0,69,0.00,,,0.00,Wunderground v.1.15,2013-06-24 17:33:00,
2013-06-24 13:37:00,84.8,73.1,30.09,SSW,207,1.0,5.0,68,0.00,,,0.00,Wunderground v.1.15,2013-06-24 17:37:00,
2013-06-24 13:39:00,84.9,73.6,30.09,SSW,207,2.0,5.0,69,0.00,,,0.00,Wunderground v.1.15,2013-06-24 17:39:00,
2013-06-24 13:40:00,84.8,73.5,30.09,SSW,207,1.0,2.0,69,0.00,,,0.00,Wunderground v.1.15,2013-06-24 17:40:00,
2013-06-24 13:43:00,84.9,73.6,30.09,SSW,207,2.0,4.0,69,0.00,,,0.00,Wunderground v.1.15,2013-06-24 17:43:00,
2013-06-24 13:44:00,85.0,72.8,30.09,SSW,208,0.0,4.0,67,0.00,,,0.00,Wunderground v.1.15,2013-06-24 17:44:00,
2013-06-24 13:45:00,85.0,73.3,30.09,SSW,207,1.0,4.0,68,0.00,,,0.00,Wunderground v.1.15,2013-06-24 17:45:00,
2013-06-24 13:48:00,85.3,74.0,30.09,SSW,208,3.0,4.0,69,0.00,,,0.00,Wunderground v.1.15,2013-06-24 17:48:00,
2013-06-24 13:50:00,85.4,74.5,30.09,SSW,208,0.0,1.0,70,0.00,,,0.00,Wunderground v.1.15,2013-06-24 17:50:00,
2013-06-24 13:52:00,85.6,75.1,30.09,SSW,208,1.0,4.0,71,0.00,,,0.00,Wunderground v.1.15,2013-06-24 17:52:00,
2013-06-24 13:53:00,85.7,75.6,30.08,SSW,208,1.0,4.0,72,0.00,,,0.00,Wunderground v.1.15,2013-06-24 17:53:00,
2013-06-24 13:56:00,85.9,76.2,30.08,SSW,208,0.0,4.0,73,0.00,,,0.00,Wunderground v.1.15,2013-06-24 17:56:00,
2013-06-24 13:57:00,85.9,75.0,30.08,SSW,207,0.0,4.0,70,0.00,,,0.00,Wunderground v.1.15,2013-06-24 17:57:00,
2013-06-24 13:58:00,86.1,75.6,30.08,SSW,208,1.0,4.0,71,0.00,,,0.00,Wunderground v.1.15,2013-06-24 17:58:00,
2013-06-24 13:59:00,86.2,74.4,30.08,SW,217,4.0,5.0,68,0.00,,,0.00,Wunderground v.1.15,2013-06-24 17:59:00,
2013-06-24 14:02:00,86.4,74.1,30.08,SW,217,0.0,2.0,67,0.00,,,0.00,Wunderground v.1.15,2013-06-24 18:02:00,
2013-06-24 14:03:00,86.4,75.0,30.08,SW,217,0.0,2.0,69,0.00,,,0.00,Wunderground v.1.15,2013-06-24 18:03:00,
2013-06-24 14:04:00,86.5,74.2,30.08,SW,217,3.0,3.0,67,0.00,,,0.00,Wunderground v.1.15,2013-06-24 18:04:00,
2013-06-24 14:07:00,86.5,73.3,30.07,SW,217,1.0,4.0,65,0.00,,,0.00,Wunderground v.1.15,2013-06-24 18:07:00,
2013-06-24 14:08:00,86.5,73.3,30.08,SW,217,0.0,5.0,65,0.00,,,0.00,Wunderground v.1.15,2013-06-24 18:08:00,
2013-06-24 14:09:00,86.5,74.7,30.08,SW,217,1.0,5.0,68,0.00,,,0.00,Wunderground v.1.15,2013-06-24 18:09:00,
2013-06-24 14:11:00,86.4,74.6,30.07,SW,217,2.0,4.0,68,0.00,,,0.00,Wunderground v.1.15,2013-06-24 18:11:00,
2013-06-24 14:12:00,86.3,72.7,30.07,SW,217,1.0,4.0,64,0.00,,,0.00,Wunderground v.1.15,2013-06-24 18:12:00,
2013-06-24 14:14:00,86.2,74.4,30.07,SW,217,0.0,4.0,68,0.00,,,0.00,Wunderground v.1.15,2013-06-24 18:14:00,
2013-06-24 14:17:00,86.1,73.9,30.07,SW,217,1.0,4.0,67,0.00,,,0.00,Wunderground v.1.15,2013-06-24 18:17:00,
2013-06-24 14:18:00,86.2,74.4,30.07,SW,217,1.0,4.0,68,0.00,,,0.00,Wunderground v.1.15,2013-06-24 18:18:00,
2013-06-24 14:19:00,86.2,75.3,30.07,SW,217,0.0,1.0,70,0.00,,,0.00,Wunderground v.1.15,2013-06-24 18:19:00,
2013-06-24 14:22:00,86.1,73.4,30.07,SW,217,3.0,7.0,66,0.00,,,0.00,Wunderground v.1.15,2013-06-24 18:22:00,
2013-06-24 14:24:00,85.9,73.7,30.07,SW,217,2.0,7.0,67,0.00,,,0.00,Wunderground v.1.15,2013-06-24 18:24:00,
2013-06-24 14:25:00,85.8,73.1,30.06,SW,217,2.0,7.0,66,0.00,,,0.00,Wunderground v.1.15,2013-06-24 18:25:00,
2013-06-24 14:27:00,85.7,71.7,30.06,SW,217,1.0,7.0,63,0.00,,,0.00,Wunderground v.1.15,2013-06-24 18:27:00,
2013-06-24 14:29:00,85.6,72.5,30.06,SW,222,2.0,7.0,65,0.00,,,0.00,Wunderground v.1.15,2013-06-24 18:29:00,
2013-06-24 14:30:00,85.6,73.8,30.07,SW,222,1.0,2.0,68,0.00,,,0.00,Wunderground v.1.15,2013-06-24 18:30:00,
2013-06-24 14:33:00,85.8,73.1,30.07,SW,221,6.0,6.0,66,0.00,,,0.00,Wunderground v.1.15,2013-06-24 18:33:00,
2013-06-24 14:34:00,85.8,73.1,30.07,SW,221,0.0,6.0,66,0.00,,,0.00,Wunderground v.1.15,2013-06-24 18:34:00,
2013-06-24 14:36:00,85.9,74.1,30.07,SW,221,1.0,6.0,68,0.00,,,0.00,Wunderground v.1.15,2013-06-24 18:36:00,
2013-06-24 14:39:00,86.0,73.8,30.07,SW,221,0.0,6.0,67,0.00,,,0.00,Wunderground v.1.15,2013-06-24 18:39:00,
2013-06-24 14:40:00,86.1,72.5,30.07,SW,221,6.0,7.0,64,0.00,,,0.00,Wunderground v.1.15,2013-06-24 18:40:00,
2013-06-24 14:41:00,86.1,74.7,30.06,SW,221,1.0,7.0,69,0.00,,,0.00,Wunderground v.1.15,2013-06-24 18:41:00,
2013-06-24 14:45:00,86.4,75.0,30.06,SW,222,0.0,7.0,69,0.00,,,0.00,Wunderground v.1.15,2013-06-24 18:45:00,
2013-06-24 14:46:00,86.4,73.2,30.06,SW,222,1.0,7.0,65,0.00,,,0.00,Wunderground v.1.15,2013-06-24 18:46:00,
2013-06-24 14:47:00,86.5,73.3,30.06,SW,222,1.0,7.0,65,0.00,,,0.00,Wunderground v.1.15,2013-06-24 18:47:00,
2013-06-24 14:51:00,86.6,75.2,30.06,SW,222,1.0,2.0,69,0.00,,,0.00,Wunderground v.1.15,2013-06-24 18:51:00,
2013-06-24 14:53:00,86.6,73.9,30.06,SW,221,3.0,5.0,66,0.00,,,0.00,Wunderground v.1.15,2013-06-24 18:53:00,
2013-06-24 14:54:00,86.5,74.2,30.06,SW,221,3.0,5.0,67,0.00,,,0.00,Wunderground v.1.15,2013-06-24 18:54:00,
2013-06-24 14:56:00,86.4,73.2,30.06,SW,221,3.0,5.0,65,0.00,,,0.00,Wunderground v.1.15,2013-06-24 18:56:00,
2013-06-24 14:58:00,86.1,73.4,30.06,SW,221,2.0,9.0,66,0.00,,,0.00,Wunderground v.1.15,2013-06-24 18:58:00,
2013-06-24 14:59:00,86.1,73.4,30.06,SW,221,3.0,9.0,66,0.00,,,0.00,Wunderground v.1.15,2013-06-24 18:59:00,
2013-06-24 15:01:00,86.1,73.4,30.06,SW,221,0.0,3.0,66,0.00,,,0.00,Wunderground v.1.15,2013-06-24 19:01:00,
2013-06-24 15:04:00,86.2,73.0,30.06,SW,221,1.0,3.0,65,0.00,,,0.00,Wunderground v.1.15,2013-06-24 19:04:00,
2013-06-24 15:05:00,86.2,73.0,30.06,SW,221,0.0,3.0,65,0.00,,,0.00,Wunderground v.1.15,2013-06-24 19:05:00,
2013-06-24 15:07:00,86.3,73.1,30.05,SW,221,1.0,3.0,65,0.00,,,0.00,Wunderground v.1.15,2013-06-24 19:07:00,
2013-06-24 15:09:00,86.5,73.3,30.05,SW,221,1.0,3.0,65,0.00,,,0.00,Wunderground v.1.15,2013-06-24 19:09:00,
2013-06-24 15:11:00,86.6,74.3,30.05,SW,221,1.0,1.0,67,0.00,,,0.00,Wunderground v.1.15,2013-06-24 19:11:00,
2013-06-24 15:12:00,86.6,74.3,30.06,SW,221,0.0,1.0,67,0.00,,,0.00,Wunderground v.1.15,2013-06-24 19:12:00,
2013-06-24 15:14:00,86.7,74.0,30.06,SW,221,0.0,3.0,66,0.00,,,0.00,Wunderground v.1.15,2013-06-24 19:14:00,
2013-06-24 15:15:00,86.8,74.5,30.06,SW,221,0.0,3.0,67,0.00,,,0.00,Wunderground v.1.15,2013-06-24 19:15:00,
2013-06-24 15:16:00,86.8,73.2,30.06,SW,221,0.0,3.0,64,0.00,,,0.00,Wunderground v.1.15,2013-06-24 19:16:00,
2013-06-24 15:19:00,87.0,73.3,30.06,SW,221,1.0,1.0,64,0.00,,,0.00,Wunderground v.1.15,2013-06-24 19:19:00,
2013-06-24 15:20:00,87.0,71.9,30.06,SW,221,2.0,2.0,61,0.00,,,0.00,Wunderground v.1.15,2013-06-24 19:20:00,
2013-06-24 15:21:00,86.9,70.8,30.06,SW,221,1.0,4.0,59,0.00,,,0.00,Wunderground v.1.15,2013-06-24 19:21:00,
2013-06-24 15:25:00,86.9,72.8,30.05,SW,221,0.0,4.0,63,0.00,,,0.00,Wunderground v.1.15,2013-06-24 19:25:00,
2013-06-24 15:26:00,86.9,73.7,30.05,SW,221,0.0,4.0,65,0.00,,,0.00,Wunderground v.1.15,2013-06-24 19:26:00,
2013-06-24 15:30:00,86.7,72.6,30.05,SW,221,5.0,7.0,63,0.00,,,0.00,Wunderground v.1.15,2013-06-24 19:30:00,
2013-06-24 15:31:00,86.5,70.5,30.05,SW,221,2.0,7.0,59,0.00,,,0.00,Wunderground v.1.15,2013-06-24 19:31:00,
2013-06-24 15:36:00,86.5,72.9,30.05,SW,222,0.0,7.0,64,0.00,,,0.00,Wunderground v.1.15,2013-06-24 19:36:00,
2013-06-24 15:37:00,86.5,71.9,30.05,SW,223,1.0,7.0,62,0.00,,,0.00,Wunderground v.1.15,2013-06-24 19:37:00,
2013-06-24 15:41:00,86.7,71.6,30.05,SW,223,3.0,6.0,61,0.00,,,0.00,Wunderground v.1.15,2013-06-24 19:41:00,
2013-06-24 15:42:00,86.7,73.1,30.05,SW,224,0.0,6.0,64,0.00,,,0.00,Wunderground v.1.15,2013-06-24 19:42:00,
2013-06-24 15:46:00,86.9,72.8,30.05,SW,224,1.0,6.0,63,0.00,,,0.00,Wunderground v.1.15,2013-06-24 19:46:00,
2013-06-24 15:47:00,87.0,72.4,30.05,SW,224,0.0,6.0,62,0.00,,,0.00,Wunderground v.1.15,2013-06-24 19:47:00,
2013-06-24 15:49:00,87.1,73.4,30.05,SW,224,1.0,6.0,64,0.00,,,0.00,Wunderground v.1.15,2013-06-24 19:49:00,
2013-06-24 15:51:00,87.1,74.4,30.05,SW,224,3.0,5.0,66,0.00,,,0.00,Wunderground v.1.15,2013-06-24 19:51:00,
2013-06-24 15:52:00,87.1,74.4,30.05,SW,224,1.0,5.0,66,0.00,,,0.00,Wunderground v.1.15,2013-06-24 19:52:00,
2013-06-24 15:55:00,87.2,72.1,30.05,SW,224,1.0,5.0,61,0.00,,,0.00,Wunderground v.1.15,2013-06-24 19:55:00,
2013-06-24 15:56:00,87.2,72.1,30.05,SW,224,1.0,5.0,61,0.00,,,0.00,Wunderground v.1.15,2013-06-24 19:56:00,
2013-06-24 15:57:00,87.3,72.7,30.05,SW,223,1.0,5.0,62,0.00,,,0.00,Wunderground v.1.15,2013-06-24 19:57:00,
2013-06-24 16:01:00,87.5,73.8,30.05,SW,224,1.0,1.0,64,0.00,,,0.00,Wunderground v.1.15,2013-06-24 20:01:00,
2013-06-24 16:02:00,87.6,73.0,30.05,SW,223,0.0,1.0,62,0.00,,,0.00,Wunderground v.1.15,2013-06-24 20:02:00,
2013-06-24 16:06:00,87.9,74.2,30.05,SW,224,0.0,3.0,64,0.00,,,0.00,Wunderground v.1.15,2013-06-24 20:06:00,
2013-06-24 16:07:00,87.9,74.2,30.05,SW,224,1.0,3.0,64,0.00,,,0.00,Wunderground v.1.15,2013-06-24 20:07:00,
2013-06-24 16:11:00,87.8,73.6,30.05,SW,224,1.0,4.0,63,0.00,,,0.00,Wunderground v.1.15,2013-06-24 20:11:00,
2013-06-24 16:13:00,87.7,73.1,30.05,SW,224,2.0,4.0,62,0.00,,,0.00,Wunderground v.1.15,2013-06-24 20:13:00,
2013-06-24 16:14:00,87.7,73.5,30.05,SW,224,0.0,4.0,63,0.00,,,0.00,Wunderground v.1.15,2013-06-24 20:14:00,
2013-06-24 16:17:00,87.7,71.1,30.05,SW,223,2.0,4.0,58,0.00,,,0.00,Wunderground v.1.15,2013-06-24 20:17:00,
2013-06-24 16:19:00,87.6,71.0,30.05,SW,223,4.0,5.0,58,0.00,,,0.00,Wunderground v.1.15,2013-06-24 20:19:00,
2013-06-24 16:20:00,87.4,72.3,30.05,SW,223,1.0,2.0,61,0.00,,,0.00,Wunderground v.1.15,2013-06-24 20:20:00,
2013-06-24 16:24:00,87.5,73.3,30.04,SW,223,0.0,2.0,63,0.00,,,0.00,Wunderground v.1.15,2013-06-24 20:24:00,
2013-06-24 16:25:00,87.6,74.4,30.04,SW,223,0.0,2.0,65,0.00,,,0.00,Wunderground v.1.15,2013-06-24 20:25:00,
2013-06-24 16:29:00,87.9,74.7,30.04,SW,223,1.0,2.0,65,0.00,,,0.00,Wunderground v.1.15,2013-06-24 20:29:00,
2013-06-24 16:31:00,87.9,73.3,30.04,SW,223,0.0,4.0,62,0.00,,,0.00,Wunderground v.1.15,2013-06-24 20:31:00,
2013-06-24 16:35:00,88.0,73.3,30.04,SW,223,0.0,4.0,62,0.00,,,0.00,Wunderground v.1.15,2013-06-24 20:35:00,
2013-06-24 16:36:00,88.0,74.3,30.03,SW,223,0.0,4.0,64,0.00,,,0.00,Wunderground v.1.15,2013-06-24 20:36:00,
2013-06-24 16:41:00,88.1,73.0,30.03,SW,223,0.0,2.0,61,0.00,,,0.00,Wunderground v.1.15,2013-06-24 20:41:00,
2013-06-24 16:42:00,88.1,74.4,30.03,SW,224,0.0,2.0,64,0.00,,,0.00,Wunderground v.1.15,2013-06-24 20:42:00,
2013-06-24 16:46:00,87.8,72.2,30.03,SW,223,0.0,4.0,60,0.00,,,0.00,Wunderground v.1.15,2013-06-24 20:46:00,
2013-06-24 16:49:00,87.8,74.1,30.03,SW,224,1.0,4.0,64,0.00,,,0.00,Wunderground v.1.15,2013-06-24 20:49:00,
2013-06-24 16:51:00,87.8,73.2,30.03,SW,223,2.0,5.0,62,0.00,,,0.00,Wunderground v.1.15,2013-06-24 20:51:00,
2013-06-24 16:55:00,87.7,72.6,30.03,SW,223,3.0,5.0,61,0.00,,,0.00,Wunderground v.1.15,2013-06-24 20:55:00,
2013-06-24 16:56:00,87.6,70.0,30.03,SW,222,2.0,5.0,56,0.00,,,0.00,Wunderground v.1.15,2013-06-24 20:56:00,
2013-06-24 16:57:00,87.5,71.4,30.03,SW,222,2.0,5.0,59,0.00,,,0.00,Wunderground v.1.15,2013-06-24 20:57:00,
2013-06-24 17:01:00,87.0,70.9,30.03,SW,222,2.0,4.0,59,0.00,,,0.00,Wunderground v.1.15,2013-06-24 21:01:00,
2013-06-24 17:02:00,86.9,70.8,30.03,SW,222,1.0,4.0,59,0.00,,,0.00,Wunderground v.1.15,2013-06-24 21:02:00,
2013-06-24 17:07:00,86.7,72.6,30.02,SW,222,0.0,4.0,63,0.00,,,0.00,Wunderground v.1.15,2013-06-24 21:07:00,
2013-06-24 17:10:00,86.5,71.0,30.02,SW,222,5.0,7.0,60,0.00,,,0.00,Wunderground v.1.15,2013-06-24 21:10:00,
2013-06-24 17:12:00,86.3,71.7,30.02,SW,222,1.0,7.0,62,0.00,,,0.00,Wunderground v.1.15,2013-06-24 21:12:00,
2013-06-24 17:13:00,86.2,72.1,30.02,SW,222,0.0,7.0,63,0.00,,,0.00,Wunderground v.1.15,2013-06-24 21:13:00,
2013-06-24 17:17:00,86.2,71.6,30.02,SW,222,0.0,7.0,62,0.00,,,0.00,Wunderground v.1.15,2013-06-24 21:17:00,
2013-06-24 17:18:00,86.2,72.6,30.02,SW,222,0.0,7.0,64,0.00,,,0.00,Wunderground v.1.15,2013-06-24 21:18:00,
2013-06-24 17:19:00,86.3,72.2,30.02,SW,222,0.0,7.0,63,0.00,,,0.00,Wunderground v.1.15,2013-06-24 21:19:00,
2013-06-24 17:22:00,86.5,72.9,30.02,SW,222,1.0,2.0,64,0.00,,,0.00,Wunderground v.1.15,2013-06-24 21:22:00,
2013-06-24 17:24:00,86.7,72.1,30.02,SW,222,0.0,2.0,62,0.00,,,0.00,Wunderground v.1.15,2013-06-24 21:24:00,
2013-06-24 17:27:00,86.8,72.2,30.02,SW,222,0.0,3.0,62,0.00,,,0.00,Wunderground v.1.15,2013-06-24 21:27:00,
2013-06-24 17:29:00,87.0,72.9,30.02,SW,222,0.0,3.0,63,0.00,,,0.00,Wunderground v.1.15,2013-06-24 21:29:00,
2013-06-24 17:30:00,87.1,71.5,30.02,SW,222,3.0,3.0,60,0.00,,,0.00,Wunderground v.1.15,2013-06-24 21:30:00,
2013-06-24 17:34:00,87.3,74.1,30.02,SW,222,0.0,3.0,65,0.00,,,0.00,Wunderground v.1.15,2013-06-24 21:34:00,
2013-06-24 17:35:00,87.4,73.3,30.02,SW,222,0.0,3.0,63,0.00,,,0.00,Wunderground v.1.15,2013-06-24 21:35:00,
2013-06-24 17:38:00,87.6,73.4,30.02,SW,223,0.0,3.0,63,0.00,,,0.00,Wunderground v.1.15,2013-06-24 21:38:00,
2013-06-24 17:39:00,87.6,73.4,30.02,SW,223,0.0,3.0,63,0.00,,,0.00,Wunderground v.1.15,2013-06-24 21:39:00,
2013-06-24 17:40:00,87.7,74.0,30.02,SW,223,2.0,2.0,64,0.00,,,0.00,Wunderground v.1.15,2013-06-24 21:40:00,
2013-06-24 17:43:00,87.8,73.2,30.02,SW,222,2.0,2.0,62,0.00,,,0.00,Wunderground v.1.15,2013-06-24 21:43:00,
2013-06-24 17:44:00,87.8,73.2,30.02,SW,223,0.0,2.0,62,0.00,,,0.00,Wunderground v.1.15,2013-06-24 21:44:00,
2013-06-24 17:45:00,87.8,73.6,30.02,SW,223,0.0,2.0,63,0.00,,,0.00,Wunderground v.1.15,2013-06-24 21:45:00,
2013-06-24 17:49:00,87.9,73.3,30.02,SW,223,0.0,2.0,62,0.00,,,0.00,Wunderground v.1.15,2013-06-24 21:49:00,
2013-06-24 17:52:00,87.9,73.3,30.02,SW,223,0.0,1.0,62,0.00,,,0.00,Wunderground v.1.15,2013-06-24 21:52:00,
2013-06-24 17:54:00,87.9,72.8,30.02,SW,223,0.0,2.0,61,0.00,,,0.00,Wunderground v.1.15,2013-06-24 21:54:00,
2013-06-24 17:55:00,88.0,73.3,30.02,SW,222,0.0,2.0,62,0.00,,,0.00,Wunderground v.1.15,2013-06-24 21:55:00,
2013-06-24 17:57:00,88.0,72.4,30.02,SW,223,1.0,2.0,60,0.00,,,0.00,Wunderground v.1.15,2013-06-24 21:57:00,
2013-06-24 17:58:00,88.0,72.4,30.02,SW,222,1.0,2.0,60,0.00,,,0.00,Wunderground v.1.15,2013-06-24 21:58:00,
2013-06-24 17:59:00,87.9,71.8,30.02,SW,223,2.0,2.0,59,0.00,,,0.00,Wunderground v.1.15,2013-06-24 21:59:00,
2013-06-24 18:00:00,87.8,72.7,30.02,SW,223,2.0,2.0,61,0.00,,,0.00,Wunderground v.1.15,2013-06-24 22:00:00,
2013-06-24 18:03:00,87.5,71.9,30.02,SW,223,1.0,3.0,60,0.00,,,0.00,Wunderground v.1.15,2013-06-24 22:03:00,
2013-06-24 18:05:00,87.2,71.1,30.01,SW,222,3.0,3.0,59,0.00,,,0.00,Wunderground v.1.15,2013-06-24 22:05:00,
2013-06-24 18:07:00,86.9,70.8,30.01,SW,223,2.0,3.0,59,0.00,,,0.00,Wunderground v.1.15,2013-06-24 22:07:00,
2013-06-24 18:08:00,86.8,73.2,30.01,SW,222,0.0,3.0,64,0.00,,,0.00,Wunderground v.1.15,2013-06-24 22:08:00,
2013-06-24 18:12:00,86.2,70.7,30.01,SW,223,3.0,4.0,60,0.00,,,0.00,Wunderground v.1.15,2013-06-24 22:12:00,
2013-06-24 18:13:00,85.9,69.9,30.01,SW,223,2.0,4.0,59,0.00,,,0.00,Wunderground v.1.15,2013-06-24 22:13:00,
2013-06-24 18:14:00,85.9,69.4,30.01,SW,222,2.0,4.0,58,0.00,,,0.00,Wunderground v.1.15,2013-06-24 22:14:00,
2013-06-24 18:17:00,85.5,71.5,30.01,SW,222,0.0,5.0,63,0.00,,,0.00,Wunderground v.1.15,2013-06-24 22:17:00,
2013-06-24 18:19:00,85.4,70.4,30.01,SW,223,3.0,5.0,61,0.00,,,0.00,Wunderground v.1.15,2013-06-24 22:19:00,
2013-06-24 18:23:00,85.2,71.2,30.00,SW,223,0.0,2.0,63,0.00,,,0.00,Wunderground v.1.15,2013-06-24 22:23:00,
2013-06-24 18:24:00,85.2,72.6,30.01,SW,222,0.0,2.0,66,0.00,,,0.00,Wunderground v.1.15,2013-06-24 22:24:00,
2013-06-24 18:26:00,85.2,71.2,30.00,SW,222,1.0,2.0,63,0.00,,,0.00,Wunderground v.1.15,2013-06-24 22:26:00,
2013-06-24 18:28:00,85.3,71.3,30.00,SW,222,0.0,2.0,63,0.00,,,0.00,Wunderground v.1.15,2013-06-24 22:28:00,
2013-06-24 18:29:00,85.3,70.8,30.00,SW,222,0.0,2.0,62,0.00,,,0.00,Wunderground v.1.15,2013-06-24 22:29:00,
2013-06-24 18:30:00,85.5,71.5,30.00,SW,223,1.0,1.0,63,0.00,,,0.00,Wunderground v.1.15,2013-06-24 22:30:00,
2013-06-24 18:31:00,85.5,71.9,30.00,SW,222,0.0,1.0,64,0.00,,,0.00,Wunderground v.1.15,2013-06-24 22:31:00,
2013-06-24 18:33:00,85.6,73.4,30.00,SW,222,0.0,1.0,67,0.00,,,0.00,Wunderground v.1.15,2013-06-24 22:33:00,
2013-06-24 18:34:00,85.7,72.1,30.00,SW,222,0.0,1.0,64,0.00,,,0.00,Wunderground v.1.15,2013-06-24 22:34:00,
2013-06-24 18:36:00,85.7,72.6,30.00,SW,223,0.0,1.0,65,0.00,,,0.00,Wunderground v.1.15,2013-06-24 22:36:00,
2013-06-24 18:39:00,85.7,71.2,30.00,SW,223,0.0,1.0,62,0.00,,,0.00,Wunderground v.1.15,2013-06-24 22:39:00,
2013-06-24 18:41:00,85.8,72.2,30.00,SW,222,0.0,1.0,64,0.00,,,0.00,Wunderground v.1.15,2013-06-24 22:41:00,
2013-06-24 18:42:00,85.8,72.2,30.00,SW,223,0.0,1.0,64,0.00,,,0.00,Wunderground v.1.15,2013-06-24 22:42:00,
2013-06-24 18:44:00,85.9,71.8,30.00,SW,222,0.0,1.0,63,0.00,,,0.00,Wunderground v.1.15,2013-06-24 22:44:00,
2013-06-24 18:46:00,85.9,71.8,30.00,SW,223,0.0,2.0,63,0.00,,,0.00,Wunderground v.1.15,2013-06-24 22:46:00,
2013-06-24 18:49:00,86.0,72.9,30.00,SW,222,0.0,2.0,65,0.00,,,0.00,Wunderground v.1.15,2013-06-24 22:49:00,
2013-06-24 18:50:00,86.1,73.0,30.00,SW,222,0.0,0.0,65,0.00,,,0.00,Wunderground v.1.15,2013-06-24 22:50:00,
2013-06-24 18:51:00,86.1,73.9,30.00,SW,222,0.0,0.0,67,0.00,,,0.00,Wunderground v.1.15,2013-06-24 22:51:00,
2013-06-24 18:52:00,86.2,74.4,30.00,SW,223,0.0,0.0,68,0.00,,,0.00,Wunderground v.1.15,2013-06-24 22:52:00,
2013-06-24 18:54:00,86.2,73.5,30.00,SW,222,0.0,0.0,66,0.00,,,0.00,Wunderground v.1.15,2013-06-24 22:54:00,
2013-06-24 18:56:00,86.2,72.1,30.00,SW,222,0.0,1.0,63,0.00,,,0.00,Wunderground v.1.15,2013-06-24 22:56:00,
2013-06-24 18:59:00,86.2,71.6,30.01,SW,222,0.0,1.0,62,0.00,,,0.00,Wunderground v.1.15,2013-06-24 22:59:00,
2013-06-24 19:01:00,86.2,73.0,30.01,SW,223,0.0,0.0,65,0.00,,,0.00,Wunderground v.1.15,2013-06-24 23:01:00,
2013-06-24 19:04:00,86.1,73.9,30.01,SW,223,0.0,0.0,67,0.00,,,0.00,Wunderground v.1.15,2013-06-24 23:04:00,
2013-06-24 19:06:00,86.0,73.8,30.01,SW,222,0.0,0.0,67,0.00,,,0.00,Wunderground v.1.15,2013-06-24 23:06:00,
2013-06-24 19:07:00,85.9,72.8,30.01,SW,223,2.0,2.0,65,0.00,,,0.00,Wunderground v.1.15,2013-06-24 23:07:00,
2013-06-24 19:09:00,85.8,74.4,30.01,SW,222,0.0,2.0,69,0.00,,,0.00,Wunderground v.1.15,2013-06-24 23:09:00,
2013-06-24 19:10:00,85.8,74.4,30.01,SW,223,0.0,0.0,69,0.00,,,0.00,Wunderground v.1.15,2013-06-24 23:10:00,
2013-06-24 19:11:00,85.7,74.8,30.01,SW,223,0.0,0.0,70,0.00,,,0.00,Wunderground v.1.15,2013-06-24 23:11:00,
2013-06-24 19:12:00,85.7,74.4,30.01,SW,223,0.0,0.0,69,0.00,,,0.00,Wunderground v.1.15,2013-06-24 23:12:00,
2013-06-24 19:15:00,85.6,75.1,30.01,SW,223,0.0,0.0,71,0.00,,,0.00,Wunderground v.1.15,2013-06-24 23:15:00,
2013-06-24 19:17:00,85.5,75.0,30.01,SW,223,0.0,0.0,71,0.00,,,0.00,Wunderground v.1.15,2013-06-24 23:17:00,
2013-06-24 19:18:00,85.5,75.0,30.01,SW,223,0.0,0.0,71,0.00,,,0.00,Wunderground v.1.15,2013-06-24 23:18:00,
2013-06-24 19:20:00,85.4,74.9,30.01,SW,223,0.0,0.0,71,0.00,,,0.00,Wunderground v.1.15,2013-06-24 23:20:00,
2013-06-24 19:23:00,85.3,74.4,30.01,SW,222,0.0,0.0,70,0.00,,,0.00,Wunderground v.1.15,2013-06-24 23:23:00,
2013-06-24 19:24:00,85.3,74.4,30.02,SW,222,0.0,0.0,70,0.00,,,0.00,Wunderground v.1.15,2013-06-24 23:24:00,
2013-06-24 19:25:00,85.2,73.0,30.02,SW,223,2.0,3.0,67,0.00,,,0.00,Wunderground v.1.15,2013-06-24 23:25:00,
2013-06-24 19:29:00,85.0,75.0,30.02,SW,223,0.0,3.0,72,0.00,,,0.00,Wunderground v.1.15,2013-06-24 23:29:00,
2013-06-24 19:30:00,85.0,75.0,30.02,SW,223,0.0,0.0,72,0.00,,,0.00,Wunderground v.1.15,2013-06-24 23:30:00,
2013-06-24 19:32:00,84.9,74.4,30.02,SW,222,1.0,2.0,71,0.00,,,0.00,Wunderground v.1.15,2013-06-24 23:32:00,
2013-06-24 19:34:00,84.6,73.3,30.01,SW,223,0.0,2.0,69,0.00,,,0.00,Wunderground v.1.15,2013-06-24 23:34:00,
2013-06-24 19:35:00,84.6,74.2,30.01,SW,222,0.0,2.0,71,0.00,,,0.00,Wunderground v.1.15,2013-06-24 23:35:00,
2013-06-24 19:37:00,84.5,74.1,30.01,SW,223,0.0,2.0,71,0.00,,,0.00,Wunderground v.1.15,2013-06-24 23:37:00,
2013-06-24 19:38:00,84.4,72.7,30.02,SW,222,0.0,2.0,68,0.00,,,0.00,Wunderground v.1.15,2013-06-24 23:38:00,
2013-06-24 19:40:00,84.3,73.9,30.02,SW,223,0.0,0.0,71,0.00,,,0.00,Wunderground v.1.15,2013-06-24 23:40:00,
2013-06-24 19:42:00,84.1,72.4,30.02,SW,223,0.0,3.0,68,0.00,,,0.00,Wunderground v.1.15,2013-06-24 23:42:00,
2013-06-24 19:43:00,83.9,73.1,30.02,SW,223,0.0,3.0,70,0.00,,,0.00,Wunderground v.1.15,2013-06-24 23:43:00,
2013-06-24 19:45:00,83.8,73.4,30.02,SW,222,0.0,3.0,71,0.00,,,0.00,Wunderground v.1.15,2013-06-24 23:45:00,
2013-06-24 19:46:00,83.7,73.3,30.02,SW,223,0.0,3.0,71,0.00,,,0.00,Wunderground v.1.15,2013-06-24 23:46:00,
2013-06-24 19:48:00,83.5,73.1,30.02,SW,222,0.0,3.0,71,0.00,,,0.00,Wunderground v.1.15,2013-06-24 23:48:00,
2013-06-24 19:51:00,83.3,73.3,30.02,SW,223,0.0,0.0,72,0.00,,,0.00,Wunderground v.1.15,2013-06-24 23:51:00,
2013-06-24 19:52:00,83.2,72.8,30.02,SW,222,0.0,0.0,71,0.00,,,0.00,Wunderground v.1.15,2013-06-24 23:52:00,
2013-06-24 19:55:00,82.8,72.8,30.02,SW,223,0.0,1.0,72,0.00,,,0.00,Wunderground v.1.15,2013-06-24 23:55:00,
2013-06-24 19:56:00,82.7,72.7,30.02,SW,223,0.0,1.0,72,0.00,,,0.00,Wunderground v.1.15,2013-06-24 23:56:00,
2013-06-24 19:57:00,82.5,73.0,30.02,SW,223,0.0,1.0,73,0.00,,,0.00,Wunderground v.1.15,2013-06-24 23:57:00,
2013-06-24 20:00:00,82.3,72.4,30.02,SW,223,0.0,0.0,72,0.00,,,0.00,Wunderground v.1.15,2013-06-25 00:00:00,
2013-06-24 20:01:00,82.1,72.6,30.02,SW,222,0.0,0.0,73,0.00,,,0.00,Wunderground v.1.15,2013-06-25 00:01:00,
2013-06-24 20:02:00,82.1,72.6,30.02,SW,223,0.0,0.0,73,0.00,,,0.00,Wunderground v.1.15,2013-06-25 00:02:00,
2013-06-24 20:03:00,82.0,72.9,30.02,SW,222,0.0,0.0,74,0.00,,,0.00,Wunderground v.1.15,2013-06-25 00:03:00,
2013-06-24 20:05:00,81.8,73.1,30.02,SW,223,0.0,0.0,75,0.00,,,0.00,Wunderground v.1.15,2013-06-25 00:05:00,
2013-06-24 20:07:00,81.6,72.9,30.02,SW,223,0.0,0.0,75,0.00,,,0.00,Wunderground v.1.15,2013-06-25 00:07:00,
2013-06-24 20:08:00,81.5,72.8,30.01,SW,223,0.0,0.0,75,0.00,,,0.00,Wunderground v.1.15,2013-06-25 00:08:00,
2013-06-24 20:10:00,81.3,72.6,30.01,SW,223,0.0,0.0,75,0.00,,,0.00,Wunderground v.1.15,2013-06-25 00:10:00,
2013-06-24 20:12:00,81.1,72.4,30.02,SW,223,0.0,0.0,75,0.00,,,0.00,Wunderground v.1.15,2013-06-25 00:12:00,
2013-06-24 20:15:00,80.9,72.6,30.01,SW,222,0.0,0.0,76,0.00,,,0.00,Wunderground v.1.15,2013-06-25 00:15:00,
2013-06-24 20:17:00,80.8,72.5,30.01,SW,223,0.0,0.0,76,0.00,,,0.00,Wunderground v.1.15,2013-06-25 00:17:00,
2013-06-24 20:18:00,80.7,72.4,30.01,SW,222,0.0,0.0,76,0.00,,,0.00,Wunderground v.1.15,2013-06-25 00:18:00,
2013-06-24 20:19:00,80.6,72.3,30.02,SW,222,0.0,0.0,76,0.00,,,0.00,Wunderground v.1.15,2013-06-25 00:19:00,
2013-06-24 20:21:00,80.5,72.2,30.01,SW,223,0.0,0.0,76,0.00,,,0.00,Wunderground v.1.15,2013-06-25 00:21:00,
2013-06-24 20:22:00,80.4,72.5,30.02,SW,223,0.0,0.0,77,0.00,,,0.00,Wunderground v.1.15,2013-06-25 00:22:00,
2013-06-24 20:23:00,80.4,72.5,30.02,SW,222,0.0,0.0,77,0.00,,,0.00,Wunderground v.1.15,2013-06-25 00:23:00,
2013-06-24 20:24:00,80.3,72.4,30.02,SW,223,0.0,0.0,77,0.00,,,0.00,Wunderground v.1.15,2013-06-25 00:24:00,
2013-06-24 20:26:00,80.2,72.3,30.02,SW,223,0.0,0.0,77,0.00,,,0.00,Wunderground v.1.15,2013-06-25 00:26:00,
2013-06-24 20:28:00,80.1,72.6,30.02,SW,223,0.0,0.0,78,0.00,,,0.00,Wunderground v.1.15,2013-06-25 00:28:00,
2013-06-24 20:30:00,80.0,72.5,30.02,SW,223,0.0,0.0,78,0.00,,,0.00,Wunderground v.1.15,2013-06-25 00:30:00,
2013-06-24 20:33:00,79.8,72.7,30.02,SW,223,0.0,0.0,79,0.00,,,0.00,Wunderground v.1.15,2013-06-25 00:33:00,
2013-06-24 20:34:00,79.7,72.6,30.03,SW,223,0.0,0.0,79,0.00,,,0.00,Wunderground v.1.15,2013-06-25 00:34:00,
2013-06-24 20:36:00,79.6,72.5,30.03,SW,223,0.0,0.0,79,0.00,,,0.00,Wunderground v.1.15,2013-06-25 00:36:00,
2013-06-24 20:38:00,79.4,72.7,30.02,SW,222,0.0,0.0,80,0.00,,,0.00,Wunderground v.1.15,2013-06-25 00:38:00,
2013-06-24 20:39:00,79.3,72.6,30.02,SW,223,0.0,1.0,80,0.00,,,0.00,Wunderground v.1.15,2013-06-25 00:39:00,
2013-06-24 20:42:00,79.1,72.4,30.02,SW,222,0.0,2.0,80,0.00,,,0.00,Wunderground v.1.15,2013-06-25 00:42:00,
2013-06-24 20:43:00,78.9,72.2,30.02,SW,222,0.0,2.0,80,0.00,,,0.00,Wunderground v.1.15,2013-06-25 00:43:00,
2013-06-24 20:45:00,78.7,72.4,30.03,SW,223,0.0,2.0,81,0.00,,,0.00,Wunderground v.1.15,2013-06-25 00:45:00,
2013-06-24 20:47:00,78.6,72.3,30.02,SW,223,0.0,2.0,81,0.00,,,0.00,Wunderground v.1.15,2013-06-25 00:47:00,
2013-06-24 20:48:00,78.4,72.1,30.03,SW,223,0.0,2.0,81,0.00,,,0.00,Wunderground v.1.15,2013-06-25 00:48:00,
2013-06-24 20:50:00,78.3,72.0,30.03,SW,223,0.0,0.0,81,0.00,,,0.00,Wunderground v.1.15,2013-06-25 00:50:00,
2013-06-24 20:51:00,78.2,72.3,30.03,SW,223,1.0,1.0,82,0.00,,,0.00,Wunderground v.1.15,2013-06-25 00:51:00,
2013-06-24 20:53:00,78.0,72.1,30.03,SW,222,0.0,3.0,82,0.00,,,0.00,Wunderground v.1.15,2013-06-25 00:53:00,
2013-06-24 20:55:00,77.8,71.9,30.03,SW,223,0.0,3.0,82,0.00,,,0.00,Wunderground v.1.15,2013-06-25 00:55:00,
2013-06-24 20:56:00,77.7,72.1,30.03,SW,222,0.0,3.0,83,0.00,,,0.00,Wunderground v.1.15,2013-06-25 00:56:00,
2013-06-24 20:58:00,77.6,72.0,30.03,SW,223,0.0,3.0,83,0.00,,,0.00,Wunderground v.1.15,2013-06-25 00:58:00,
2013-06-24 21:00:00,77.4,71.8,30.03,SW,222,2.0,3.0,83,0.00,,,0.00,Wunderground v.1.15,2013-06-25 01:00:00,
2013-06-24 21:01:00,77.4,71.8,30.02,SW,223,0.0,3.0,83,0.00,,,0.00,Wunderground v.1.15,2013-06-25 01:01:00,
2013-06-24 21:02:00,77.2,71.6,30.03,SW,222,0.0,3.0,83,0.00,,,0.00,Wunderground v.1.15,2013-06-25 01:02:00,
2013-06-24 21:04:00,77.1,71.5,30.03,SW,223,0.0,3.0,83,0.00,,,0.00,Wunderground v.1.15,2013-06-25 01:04:00,
2013-06-24 21:05:00,77.1,71.5,30.03,SW,223,0.0,3.0,83,0.00,,,0.00,Wunderground v.1.15,2013-06-25 01:05:00,
2013-06-24 21:06:00,77.0,71.8,30.03,SW,223,0.0,3.0,84,0.00,,,0.00,Wunderground v.1.15,2013-06-25 01:06:00,
2013-06-24 21:08:00,76.9,71.7,30.03,SW,223,0.0,3.0,84,0.00,,,0.00,Wunderground v.1.15,2013-06-25 01:08:00,
2013-06-24 21:09:00,76.9,71.7,30.03,SW,223,0.0,3.0,84,0.00,,,0.00,Wunderground v.1.15,2013-06-25 01:09:00,
2013-06-24 21:10:00,76.8,71.6,30.02,SW,223,0.0,3.0,84,0.00,,,0.00,Wunderground v.1.15,2013-06-25 01:10:00,
2013-06-24 21:11:00,76.8,71.9,30.03,SW,222,0.0,3.0,85,0.00,,,0.00,Wunderground v.1.15,2013-06-25 01:11:00,
2013-06-24 21:14:00,76.7,71.8,30.03,SW,222,0.0,3.0,85,0.00,,,0.00,Wunderground v.1.15,2013-06-25 01:14:00,
2013-06-24 21:15:00,76.7,71.8,30.03,SW,222,1.0,3.0,85,0.00,,,0.00,Wunderground v.1.15,2013-06-25 01:15:00,
2013-06-24 21:16:00,76.7,71.8,30.03,SW,222,0.0,3.0,85,0.00,,,0.00,Wunderground v.1.15,2013-06-25 01:16:00,
2013-06-24 21:17:00,76.7,71.8,30.03,SW,223,0.0,3.0,85,0.00,,,0.00,Wunderground v.1.15,2013-06-25 01:17:00,
2013-06-24 21:19:00,76.6,71.7,30.03,SW,223,0.0,3.0,85,0.00,,,0.00,Wunderground v.1.15,2013-06-25 01:19:00,
2013-06-24 21:20:00,76.6,71.7,30.03,SW,222,0.0,1.0,85,0.00,,,0.00,Wunderground v.1.15,2013-06-25 01:20:00,
2013-06-24 21:21:00,76.5,71.7,30.03,SW,223,0.0,1.0,85,0.00,,,0.00,Wunderground v.1.15,2013-06-25 01:21:00,
2013-06-24 21:23:00,76.5,71.7,30.03,SW,222,0.0,1.0,85,0.00,,,0.00,Wunderground v.1.15,2013-06-25 01:23:00,
2013-06-24 21:24:00,76.4,71.6,30.03,SW,223,0.0,1.0,85,0.00,,,0.00,Wunderground v.1.15,2013-06-25 01:24:00,
2013-06-24 21:25:00,76.4,71.6,30.03,SW,223,0.0,1.0,85,0.00,,,0.00,Wunderground v.1.15,2013-06-25 01:25:00,
2013-06-24 21:27:00,76.4,71.6,30.03,SW,223,0.0,1.0,85,0.00,,,0.00,Wunderground v.1.15,2013-06-25 01:27:00,
2013-06-24 21:28:00,76.3,71.5,30.03,SW,223,0.0,1.0,85,0.00,,,0.00,Wunderground v.1.15,2013-06-25 01:28:00,
2013-06-24 21:30:00,76.3,71.8,30.03,SW,223,0.0,0.0,86,0.00,,,0.00,Wunderground v.1.15,2013-06-25 01:30:00,
2013-06-24 21:32:00,76.2,71.7,30.03,SW,223,1.0,1.0,86,0.00,,,0.00,Wunderground v.1.15,2013-06-25 01:32:00,
2013-06-24 21:34:00,76.2,71.7,30.03,SW,223,1.0,1.0,86,0.00,,,0.00,Wunderground v.1.15,2013-06-25 01:34:00,
2013-06-24 21:35:00,76.2,71.7,30.03,SW,222,0.0,1.0,86,0.00,,,0.00,Wunderground v.1.15,2013-06-25 01:35:00,
2013-06-24 21:36:00,76.1,71.6,30.03,SW,222,0.0,1.0,86,0.00,,,0.00,Wunderground v.1.15,2013-06-25 01:36:00,
2013-06-24 21:40:00,76.1,71.6,30.03,SW,222,0.0,0.0,86,0.00,,,0.00,Wunderground v.1.15,2013-06-25 01:40:00,
2013-06-24 21:41:00,76.0,71.5,30.03,SW,223,0.0,0.0,86,0.00,,,0.00,Wunderground v.1.15,2013-06-25 01:41:00,
2013-06-24 21:43:00,76.0,71.5,30.04,SW,223,0.0,2.0,86,0.00,,,0.00,Wunderground v.1.15,2013-06-25 01:43:00,
2013-06-24 21:45:00,75.9,71.4,30.04,SW,223,0.0,2.0,86,0.00,,,0.00,Wunderground v.1.15,2013-06-25 01:45:00,
2013-06-24 21:48:00,75.8,71.7,30.04,SW,222,0.0,2.0,87,0.00,,,0.00,Wunderground v.1.15,2013-06-25 01:48:00,
2013-06-24 21:50:00,75.8,71.7,30.04,SW,223,0.0,0.0,87,0.00,,,0.00,Wunderground v.1.15,2013-06-25 01:50:00,
2013-06-24 21:53:00,75.6,71.5,30.04,SW,222,0.0,1.0,87,0.00,,,0.00,Wunderground v.1.15,2013-06-25 01:53:00,
2013-06-24 21:55:00,75.5,71.4,30.04,SW,223,0.0,1.0,87,0.00,,,0.00,Wunderground v.1.15,2013-06-25 01:55:00,
2013-06-24 21:56:00,75.5,71.4,30.04,SW,222,0.0,1.0,87,0.00,,,0.00,Wunderground v.1.15,2013-06-25 01:56:00,
2013-06-24 21:58:00,75.3,71.2,30.04,SW,223,0.0,1.0,87,0.00,,,0.00,Wunderground v.1.15,2013-06-25 01:58:00,
2013-06-24 21:59:00,75.3,71.2,30.04,SW,222,0.0,1.0,87,0.00,,,0.00,Wunderground v.1.15,2013-06-25 01:59:00,
2013-06-24 22:01:00,75.1,71.3,30.04,SW,222,0.0,0.0,88,0.00,,,0.00,Wunderground v.1.15,2013-06-25 02:01:00,
2013-06-24 22:04:00,74.9,71.1,30.04,SW,223,0.0,0.0,88,0.00,,,0.00,Wunderground v.1.15,2013-06-25 02:04:00,
2013-06-24 22:06:00,74.8,71.0,30.04,SW,223,0.0,2.0,88,0.00,,,0.00,Wunderground v.1.15,2013-06-25 02:06:00,
2013-06-24 22:07:00,74.8,71.0,30.04,SW,222,0.0,2.0,88,0.00,,,0.00,Wunderground v.1.15,2013-06-25 02:07:00,
2013-06-24 22:09:00,74.7,70.9,30.04,SW,223,0.0,2.0,88,0.00,,,0.00,Wunderground v.1.15,2013-06-25 02:09:00,
2013-06-24 22:12:00,74.7,70.9,30.05,SW,223,0.0,0.0,88,0.00,,,0.00,Wunderground v.1.15,2013-06-25 02:12:00,
2013-06-24 22:14:00,74.7,70.9,30.05,SW,222,0.0,1.0,88,0.00,,,0.00,Wunderground v.1.15,2013-06-25 02:14:00,
2013-06-24 22:15:00,74.7,70.9,30.05,SW,222,0.0,1.0,88,0.00,,,0.00,Wunderground v.1.15,2013-06-25 02:15:00,
2013-06-24 22:17:00,74.7,70.9,30.05,SW,223,0.0,1.0,88,0.00,,,0.00,Wunderground v.1.15,2013-06-25 02:17:00,
2013-06-24 22:20:00,74.8,71.0,30.05,SW,223,0.0,0.0,88,0.00,,,0.00,Wunderground v.1.15,2013-06-25 02:20:00,
2013-06-24 22:21:00,74.8,71.0,30.05,SW,222,0.0,0.0,88,0.00,,,0.00,Wunderground v.1.15,2013-06-25 02:21:00,
2013-06-24 22:24:00,74.8,71.0,30.05,SW,223,0.0,0.0,88,0.00,,,0.00,Wunderground v.1.15,2013-06-25 02:24:00,
2013-06-24 22:26:00,74.8,71.0,30.05,SW,223,0.0,0.0,88,0.00,,,0.00,Wunderground v.1.15,2013-06-25 02:26:00,
2013-06-24 22:29:00,74.7,70.9,30.05,SW,223,0.0,0.0,88,0.00,,,0.00,Wunderground v.1.15,2013-06-25 02:29:00,
2013-06-24 22:33:00,74.6,70.8,30.05,SW,223,0.0,0.0,88,0.00,,,0.00,Wunderground v.1.15,2013-06-25 02:33:00,
2013-06-24 22:34:00,74.5,70.7,30.06,SW,222,0.0,0.0,88,0.00,,,0.00,Wunderground v.1.15,2013-06-25 02:34:00,
2013-06-24 22:36:00,74.4,70.6,30.06,SW,223,0.0,0.0,88,0.00,,,0.00,Wunderground v.1.15,2013-06-25 02:36:00,
2013-06-24 22:38:00,74.3,70.8,30.06,SW,222,0.0,0.0,89,0.00,,,0.00,Wunderground v.1.15,2013-06-25 02:38:00,
2013-06-24 22:39:00,74.3,70.8,30.06,SW,222,0.0,0.0,89,0.00,,,0.00,Wunderground v.1.15,2013-06-25 02:39:00,
2013-06-24 22:40:00,74.2,70.7,30.06,SW,223,0.0,0.0,89,0.00,,,0.00,Wunderground v.1.15,2013-06-25 02:40:00,
2013-06-24 22:41:00,74.2,70.7,30.06,SW,223,0.0,0.0,89,0.00,,,0.00,Wunderground v.1.15,2013-06-25 02:41:00,
2013-06-24 22:44:00,74.1,70.6,30.05,SW,223,0.0,0.0,89,0.00,,,0.00,Wunderground v.1.15,2013-06-25 02:44:00,
2013-06-24 22:45:00,74.1,70.6,30.05,SW,223,0.0,0.0,89,0.00,,,0.00,Wunderground v.1.15,2013-06-25 02:45:00,
2013-06-24 22:46:00,74.1,70.6,30.05,SW,223,0.0,0.0,89,0.00,,,0.00,Wunderground v.1.15,2013-06-25 02:46:00,
2013-06-24 22:47:00,74.0,70.6,30.05,SW,223,0.0,0.0,89,0.00,,,0.00,Wunderground v.1.15,2013-06-25 02:47:00,
2013-06-24 22:49:00,74.0,70.6,30.06,SW,222,0.0,0.0,89,0.00,,,0.00,Wunderground v.1.15,2013-06-25 02:49:00,
2013-06-24 22:50:00,74.0,70.6,30.06,SW,223,0.0,0.0,89,0.00,,,0.00,Wunderground v.1.15,2013-06-25 02:50:00,
2013-06-24 22:51:00,73.9,70.5,30.06,SW,223,0.0,0.0,89,0.00,,,0.00,Wunderground v.1.15,2013-06-25 02:51:00,
2013-06-24 22:52:00,73.9,70.5,30.06,SW,222,0.0,0.0,89,0.00,,,0.00,Wunderground v.1.15,2013-06-25 02:52:00,
2013-06-24 22:55:00,73.9,70.8,30.06,SW,222,0.0,0.0,90,0.00,,,0.00,Wunderground v.1.15,2013-06-25 02:55:00,
2013-06-24 22:56:00,73.8,70.7,30.06,SW,222,0.0,0.0,90,0.00,,,0.00,Wunderground v.1.15,2013-06-25 02:56:00,
2013-06-24 22:59:00,73.7,70.6,30.06,SW,222,0.0,0.0,90,0.00,,,0.00,Wunderground v.1.15,2013-06-25 02:59:00,
2013-06-24 23:00:00,73.7,70.6,30.06,SW,223,0.0,0.0,90,0.00,,,0.00,Wunderground v.1.15,2013-06-25 03:00:00,
2013-06-24 23:01:00,73.7,70.6,30.06,SW,222,0.0,0.0,90,0.00,,,0.00,Wunderground v.1.15,2013-06-25 03:01:00,
2013-06-24 23:02:00,73.7,70.6,30.06,SW,222,0.0,0.0,90,0.00,,,0.00,Wunderground v.1.15,2013-06-25 03:02:00,
2013-06-24 23:04:00,73.6,70.5,30.07,SW,222,0.0,0.0,90,0.00,,,0.00,Wunderground v.1.15,2013-06-25 03:04:00,
2013-06-24 23:05:00,73.6,70.5,30.07,SW,223,0.0,0.0,90,0.00,,,0.00,Wunderground v.1.15,2013-06-25 03:05:00,
2013-06-24 23:08:00,73.6,70.8,30.06,SW,223,0.0,1.0,91,0.00,,,0.00,Wunderground v.1.15,2013-06-25 03:08:00,
2013-06-24 23:09:00,73.6,70.8,30.06,SW,223,1.0,1.0,91,0.00,,,0.00,Wunderground v.1.15,2013-06-25 03:09:00,
2013-06-24 23:11:00,73.5,70.7,30.06,SW,222,1.0,1.0,91,0.00,,,0.00,Wunderground v.1.15,2013-06-25 03:11:00,
2013-06-24 23:14:00,73.5,70.7,30.07,SW,223,1.0,1.0,91,0.00,,,0.00,Wunderground v.1.15,2013-06-25 03:14:00,
2013-06-24 23:15:00,73.5,70.7,30.07,SW,222,1.0,1.0,91,0.00,,,0.00,Wunderground v.1.15,2013-06-25 03:15:00,
2013-06-24 23:18:00,73.5,70.7,30.07,SW,223,1.0,1.0,91,0.00,,,0.00,Wunderground v.1.15,2013-06-25 03:18:00,
2013-06-24 23:19:00,73.4,70.6,30.07,SW,223,1.0,1.0,91,0.00,,,0.00,Wunderground v.1.15,2013-06-25 03:19:00,
2013-06-24 23:21:00,73.4,70.6,30.07,SW,222,0.0,1.0,91,0.00,,,0.00,Wunderground v.1.15,2013-06-25 03:21:00,
2013-06-24 23:24:00,73.4,70.6,30.07,SW,222,0.0,1.0,91,0.00,,,0.00,Wunderground v.1.15,2013-06-25 03:24:00,
2013-06-24 23:25:00,73.4,70.6,30.07,SW,223,0.0,1.0,91,0.00,,,0.00,Wunderground v.1.15,2013-06-25 03:25:00,
2013-06-24 23:26:00,73.4,70.6,30.07,SW,223,0.0,1.0,91,0.00,,,0.00,Wunderground v.1.15,2013-06-25 03:26:00,
2013-06-24 23:31:00,73.3,70.5,30.07,SW,223,0.0,0.0,91,0.00,,,0.00,Wunderground v.1.15,2013-06-25 03:31:00,
2013-06-24 23:33:00,73.3,70.5,30.07,SW,222,0.0,0.0,91,0.00,,,0.00,Wunderground v.1.15,2013-06-25 03:33:00,
2013-06-24 23:36:00,73.2,70.4,30.07,SW,223,0.0,0.0,91,0.00,,,0.00,Wunderground v.1.15,2013-06-25 03:36:00,
2013-06-24 23:39:00,73.1,70.3,30.07,SW,222,0.0,0.0,91,0.00,,,0.00,Wunderground v.1.15,2013-06-25 03:39:00,
2013-06-24 23:42:00,73.0,70.2,30.07,SW,223,0.0,0.0,91,0.00,,,0.00,Wunderground v.1.15,2013-06-25 03:42:00,
2013-06-24 23:43:00,73.0,70.5,30.07,SW,222,0.0,0.0,92,0.00,,,0.00,Wunderground v.1.15,2013-06-25 03:43:00,
2013-06-24 23:45:00,72.9,70.4,30.07,SW,222,0.0,0.0,92,0.00,,,0.00,Wunderground v.1.15,2013-06-25 03:45:00,
2013-06-24 23:48:00,72.8,70.3,30.07,SW,223,0.0,0.0,92,0.00,,,0.00,Wunderground v.1.15,2013-06-25 03:48:00,
2013-06-24 23:49:00,72.8,70.3,30.07,SW,223,0.0,0.0,92,0.00,,,0.00,Wunderground v.1.15,2013-06-25 03:49:00,
2013-06-24 23:50:00,72.8,70.3,30.07,SW,222,0.0,0.0,92,0.00,,,0.00,Wunderground v.1.15,2013-06-25 03:50:00,
2013-06-24 23:53:00,72.7,70.2,30.07,SW,223,0.0,0.0,92,0.00,,,0.00,Wunderground v.1.15,2013-06-25 03:53:00,
2013-06-24 23:55:00,72.7,70.2,30.07,SW,223,0.0,0.0,92,0.00,,,0.00,Wunderground v.1.15,2013-06-25 03:55:00,
2013-06-24 23:56:00,72.7,70.2,30.07,SW,223,0.0,0.0,92,0.00,,,0.00,Wunderground v.1.15,2013-06-25 03:56:00,
2013-06-24 23:58:00,72.7,70.6,30.07,SW,223,0.0,0.0,93,0.00,,,0.00,Wunderground v.1.15,2013-06-25 03:58:00,